GFSSGP_con_mlcape_000.txt.gz
CAPE
0 0 0 0 0 0 0 0 0 0 0 0 2 254 366 401 582 378 914 1161 1175 1041 920 220 61 74 456 1104 1550 1740 2002 1394 1746 1992 1671 1517 1171 869 674 248 0 0 0 0 202 488 541 770 626
0 0 0 0 0 0 0 0 0 0 0 0 9 240 358 567 856 934 1254 1262 1174 1160 893 472 282 305 251 575 1179 1562 1631 1550 1439 1695 1477 1429 1019 688 697 110 0 0 9 4 6 389 431 643 463
0 0 0 0 0 0 0 0 0 0 0 0 12 536 183 779 819 989 1423 1403 1367 1260 1194 697 495 516 368 398 754 1148 1155 1286 1308 1357 1293 1161 1236 708 512 378 118 46 60 582 612 57 275 445 522
0 0 0 0 0 0 0 0 0 0 0 0 35 632 986 1138 1006 1224 1278 1563 1510 1535 1445 953 869 847 700 440 856 1091 914 990 1180 1141 1033 1447 1117 766 328 34 28 55 377 428 125 6 3 292 332
0 0 0 0 0 0 0 0 0 0 38 31 171 469 832 1564 1408 1256 1275 1352 1531 1667 1787 1305 990 1057 984 758 587 615 910 862 818 768 973 992 919 1204 889 828 687 525 277 15 5 0 0 175 45
0 0 0 0 0 0 0 0 0 18 51 134 228 125 950 1417 1603 1593 1302 1247 1497 1816 1944 1843 1233 1042 906 727 642 499 536 675 872 861 649 587 509 460 532 543 465 473 375 211 40 81 178 371 250
0 0 0 0 0 0 0 0 0 0 20 32 154 199 476 791 1640 1652 1321 1263 1171 1309 1565 1937 1957 1472 1174 706 346 476 544 583 806 955 897 513 585 484 241 242 347 270 196 195 251 339 392 326 266
0 0 0 0 0 0 0 0 0 0 0 0 0 131 372 966 1538 1605 1466 1462 1506 1397 1443 1431 1596 1998 1555 846 191 229 343 456 579 744 854 856 561 282 159 59 16 12 22 0 0 0 96 144 138
0 0 0 0 0 0 0 0 0 0 0 0 0 21 1046 1281 1377 1292 1293 1182 1174 888 951 1639 1896 1854 1539 1207 366 880 631 567 592 450 330 416 1006 454 171 0 0 0 0 0 0 0 0 0 0
0 0 0 0 0 0 0 0 0 0 0 0 0 0 363 946 1062 893 746 827 697 275 131 253 844 1376 1427 1114 293 1489 1416 1078 1001 990 777 679 493 275 156 32 0 0 0 0 0 0 0 0 0
0 0 0 0 0 0 0 0 0 0 0 0 0 0 49 250 346 450 295 317 49 2 0 0 297 939 1332 1091 1118 1273 1119 912 762 605 469 276 129 66 83 96 122 40 0 0 0 0 0 0 0
0 0 0 0 0 0 0 0 0 0 0 0 0 0 2 68 179 224 182 29 0 0 0 0 183 514 542 527 425 687 388 301 168 155 168 121 91 29 40 24 0 0 2 2 1 0 0 0 0
0 0 0 0 0 0 0 0 0 0 0 0 0 0 0 1 31 14 0 0 0 0 0 0 1 188 404 201 44 0 0 0 0 0 0 0 0 3 0 0 0 0 1 0 0 0 0 0 0
0 0 0 0 0 0 0 0 0 0 0 0 0 0 0 0 0 0 0 0 0 0 0 0 0 0 0 31 0 0 0 0 0 0 0 0 0 0 0 0 0 0 0 0 0 4 7 4 0
0 0 0 0 0 0 0 0 0 0 0 0 0 0 0 0 0 0 0 0 0 0 0 0 0 0 0 0 0 0 0 0 0 0 0 0 0 0 0 0 0 0 0 0 0 0 0 0 0
0 0 0 0 0 0 0 0 0 0 0 0 0 0 0 0 0 0 0 0 0 0 0 0 0 0 0 0 0 0 0 0 0 0 0 0 0 0 0 0 0 0 0 0 0 0 0 0 0
0 0 0 0 0 0 0 0 0 0 0 0 0 0 0 0 0 0 0 0 0 0 0 0 0 0 0 0 0 0 0 0 0 0 0 0 0 0 0 0 0 0 0 0 0 0 0 0 0
0 0 0 0 0 0 0 0 0 0 0 0 0 0 0 0 0 0 0 0 0 0 0 0 0 0 0 0 0 0 0 0 0 0 0 0 0 0 0 0 0 0 0 0 0 0 0 0 0
0 0 0 0 0 0 0 0 0 0 0 0 0 0 0 0 0 0 0 0 0 0 0 0 0 0 0 0 0 0 0 0 0 0 0 0 0 0 0 0 0 0 0 0 0 0 0 0 0
0 0 0 0 0 0 0 0 0 0 0 0 0 0 0 0 0 0 0 0 0 0 0 0 0 0 0 0 0 0 0 0 0 0 0 0 0 0 0 0 0 0 0 0 0 0 0 0 0
0 0 0 0 0 0 0 0 0 0 0 0 0 0 0 0 0 0 0 0 0 0 0 0 0 0 0 0 0 0 0 0 0 0 0 0 0 0 0 0 0 0 0 0 0 0 0 0 1
0 0 0 0 0 0 0 0 0 0 0 0 0 0 0 0 0 0 0 0 0 0 0 0 0 0 0 0 0 0 0 0 0 0 0 0 2 1 6 6 12 8 1 0 0 0 2 1 0
0 0 0 0 0 0 0 0 0 0 0 0 0 0 0 0 0 0 0 0 0 0 0 0 0 0 0 0 0 0 0 0 0 0 0 0 0 0 0 0 0 3 10 6 0 0 0 0 1
0 0 0 0 0 0 0 0 0 0 0 0 0 0 0 0 0 0 0 0 0 0 0 0 0 0 0 0 0 0 0 0 0 0 0 0 0 0 0 0 0 0 0 0 0 0 0 0 0
0 0 0 0 0 0 0 0 0 0 0 0 0 0 0 0 0 0 0 0 0 0 0 0 0 0 0 0 0 0 0 0 0 0 0 0 0 0 0 0 0 0 0 0 0 0 0 0 0
0 0 0 0 0 0 0 0 0 0 0 0 0 0 0 0 0 0 0 1 0 0 0 0 0 0 0 0 0 0 0 0 0 0 0 0 0 0 0 0 0 0 0 0 0 0 0 0 0
0 0 0 0 0 0 0 0 0 0 0 0 0 0 0 0 0 0 1 1 0 0 0 2 1 0 0 0 0 0 0 0 0 0 0 0 0 0 0 0 0 0 0 0 0 0 0 0 0
0 0 0 0 0 0 0 0 0 17 5 0 0 0 0 0 0 0 0 0 0 0 0 0 3 0 0 0 0 0 0 0 0 0 0 0 0 0 0 0 0 0 0 0 0 0 0 0 0
0 0 6 5 4 8 1 0 0 0 0 0 0 0 0 0 0 0 0 0 0 0 0 0 0 0 0 0 0 0 0 0 0 0 0 0 0 0 0 0 0 0 0 0 0 0 0 0 0
0 0 3 2 0 1 8 0 0 8 14 5 25 8 0 0 0 0 0 0 0 0 0 0 0 0 0 0 0 0 0 0 0 0 0 0 0 0 0 0 0 0 0 0 0 0 0 0 0

GFSSGP_con_mlcape_003.txt.gz
CAPE
0 0 0 0 0 0 0 0 0 0 0 4 179 182 411 436 384 373 1062 1036 923 738 263 123 72 189 643 1192 1536 1643 1467 1344 1735 1831 1674 1399 1137 780 572 475 180 0 0 0 8 13 281 380 417
0 0 0 0 0 0 0 0 0 0 0 34 409 197 331 672 976 1136 1135 1130 1103 734 482 340 210 160 400 1049 1264 1354 1389 1450 1489 1559 1619 1431 1142 952 742 268 86 0 0 0 20 404 142 134 324
0 0 0 0 0 0 0 0 0 0 0 0 385 357 555 674 836 1322 1444 1182 1197 1014 592 541 402 348 457 1011 1138 1061 1030 1014 1156 1261 1440 1332 1152 882 747 407 108 14 13 80 373 136 122 1 0
0 0 0 0 0 0 0 0 0 0 0 90 515 609 911 963 1100 1366 1423 1401 1299 1180 802 791 760 633 435 556 753 806 706 798 808 965 1254 1280 1184 965 785 443 384 201 241 446 746 378 5 0 0
0 0 0 0 0 0 0 0 0 6 122 228 305 152 368 1209 1165 1053 1484 1475 1539 1497 1101 931 858 743 664 434 320 404 523 655 1045 1168 1020 1082 1088 846 590 242 107 256 523 355 171 101 0 0 7
0 0 0 0 0 0 0 0 0 1 15 84 254 352 713 1384 1373 1269 1313 1483 1678 1677 1439 1174 873 772 632 510 494 465 510 645 859 1127 958 742 1073 1148 1062 914 755 647 430 99 0 0 0 28 9
0 0 0 0 0 0 0 0 0 0 0 0 61 139 768 1344 1598 1501 1109 1086 1621 1951 1975 1577 1294 1204 858 527 276 387 481 627 752 1006 818 635 375 244 409 485 423 381 326 351 346 270 179 296 270
0 0 0 0 0 0 0 0 0 0 0 0 64 290 378 1001 1610 1676 1371 1429 1343 1356 1542 2037 1682 1397 941 509 219 337 343 511 729 888 1026 503 275 180 122 60 99 159 45 110 119 123 77 50 75
0 0 0 0 0 0 0 0 0 0 0 0 0 508 279 151 1550 1522 1089 1190 942 884 1154 1440 1600 1663 1147 803 526 728 578 556 565 469 616 553 337 144 1 1 0 0 0 0 0 0 19 10 0
0 0 0 0 0 0 0 0 0 0 0 0 0 581 617 1154 1164 1089 1050 955 649 249 240 213 271 1032 1078 1108 726 1129 985 793 799 623 477 469 283 38 9 0 0 0 0 0 0 0 0 0 0
0 0 0 0 0 0 0 0 0 0 0 0 0 12 557 877 825 489 432 593 133 5 0 4 295 697 900 719 948 1091 830 877 572 343 258 77 7 0 11 0 0 0 0 0 0 0 0 0 0
0 0 0 0 0 0 0 0 0 0 0 0 0 0 0 43 115 212 144 0 0 0 0 0 1 205 372 87 470 453 684 274 294 92 151 0 0 0 0 0 0 0 0 0 0 0 0 0 0
0 0 0 0 0 0 0 0 0 0 0 0 0 0 0 0 0 20 0 0 0 0 0 0 0 30 117 1 0 0 0 0 0 0 0 0 0 0 0 0 0 0 0 0 0 0 0 0 0
0 0 0 0 0 0 0 0 0 0 0 0 0 0 0 0 0 0 0 0 0 0 0 0 0 0 0 0 0 0 0 0 0 0 0 0 0 0 0 0 0 0 0 0 0 0 0 0 0
0 0 0 0 0 0 0 0 0 0 0 0 0 0 0 0 0 0 0 0 0 0 0 0 0 0 0 0 0 0 0 0 0 0 0 0 0 0 0 0 0 0 0 0 0 0 0 0 0
0 0 0 0 0 0 0 0 0 0 0 0 0 0 0 0 0 0 0 0 0 0 0 0 0 0 0 0 0 0 0 0 0 0 0 0 0 0 0 0 0 0 0 0 0 0 0 0 0
0 0 0 0 0 0 0 0 0 0 0 0 0 0 0 0 0 0 0 0 0 0 0 0 0 0 0 0 0 0 0 0 0 0 0 0 0 0 0 0 0 0 0 0 0 0 0 0 0
0 0 0 0 0 0 0 0 0 0 0 0 0 0 0 0 0 0 0 0 0 0 0 0 0 0 0 0 0 0 0 0 0 0 0 0 0 0 0 0 0 0 0 0 0 0 0 0 0
0 0 0 0 0 0 0 0 0 0 0 0 0 0 0 0 0 0 0 0 0 0 0 0 0 0 0 0 0 0 0 0 0 0 0 0 0 0 0 0 0 0 0 0 0 0 0 0 0
0 0 0 0 0 0 0 0 0 0 0 0 0 0 0 0 0 0 0 0 0 0 0 0 0 0 0 0 0 0 0 0 0 0 0 0 0 0 0 0 0 0 0 0 0 0 0 0 0
0 0 0 0 0 0 0 0 0 0 0 0 0 0 0 0 0 0 0 0 0 0 0 0 0 0 0 0 0 0 0 0 0 0 0 0 0 0 0 0 0 0 0 0 0 0 0 0 0
0 0 0 0 0 0 0 0 0 0 0 0 0 0 0 0 0 0 0 0 0 0 0 0 0 0 0 0 0 0 0 0 0 0 0 0 0 0 0 0 0 1 0 0 0 0 0 0 0
0 0 0 0 0 0 0 0 0 0 0 0 0 0 0 0 0 0 0 0 0 0 0 0 0 0 0 0 0 0 0 0 0 0 0 0 0 0 0 0 0 0 0 0 0 0 0 0 0
0 0 0 0 0 0 0 0 0 0 0 0 0 0 0 0 0 0 0 0 0 0 0 0 0 0 0 0 0 0 0 0 0 0 0 0 0 0 0 0 0 0 0 0 0 0 0 0 0
0 0 0 0 0 0 0 0 0 0 0 0 0 0 0 0 0 0 0 0 0 0 0 0 0 0 0 0 0 0 0 0 0 0 0 0 0 0 0 0 0 0 0 0 0 0 0 0 0
0 0 0 0 0 0 0 0 0 0 0 0 0 0 0 0 0 0 0 0 0 0 0 0 0 0 0 0 0 0 0 0 0 0 0 0 0 0 0 0 0 0 0 0 0 0 0 0 0
0 0 0 0 0 0 0 0 0 0 0 0 0 0 0 0 0 0 0 0 0 0 0 0 0 0 0 0 0 0 0 0 0 0 0 0 0 0 0 0 0 0 0 0 0 0 0 0 0
0 0 0 0 0 0 0 0 0 1 0 4 0 0 0 0 0 0 0 0 0 0 0 0 0 0 0 0 0 0 0 0 0 0 0 0 0 0 0 0 0 0 0 0 0 0 0 0 0
0 0 0 0 0 7 5 0 0 0 2 0 3 0 0 0 0 0 0 0 0 0 0 0 0 0 0 0 0 0 0 0 0 0 0 0 0 0 0 0 0 0 0 0 0 0 0 0 0
0 0 0 4 0 0 1 0 0 0 2 0 0 0 0 0 0 0 0 0 0 0 0 0 0 0 0 0 0 0 0 0 0 0 0 0 0 0 0 0 0 0 0 0 0 0 0 0 0

GFSSGP_con_mlcape_006.txt.gz
CAPE
0 0 0 0 0 0 0 0 0 0 4 167 222 195 223 303 289 141 888 759 454 323 77 127 338 909 1335 1428 1543 1421 1567 1864 1866 1817 1688 1450 1199 890 578 324 310 197 156 294 210 304 607 692 340
0 0 0 0 0 0 0 0 0 0 241 110 178 363 405 671 923 938 965 768 592 492 279 224 313 742 1031 1084 1201 1327 1480 1504 1645 1804 1771 1676 1513 1333 1139 953 467 85 75 237 598 511 305 192 109
0 0 0 0 0 0 0 0 0 6 29 2 409 496 620 783 1155 1170 1052 1002 810 595 483 367 271 582 730 642 619 608 902 1302 1552 1541 1719 1772 1628 1452 1345 774 517 171 215 385 680 565 515 119 70
0 0 0 0 0 0 0 0 0 0 128 305 416 503 759 800 1038 1171 1152 1039 1004 662 527 407 232 326 573 660 632 627 629 722 967 1502 1597 1621 1563 1348 1366 992 396 229 315 424 888 484 195 156 1
0 0 0 0 0 0 0 0 0 34 107 175 204 339 866 969 1219 1307 1225 1197 1194 650 665 640 557 453 411 547 664 699 884 860 994 1076 1298 1514 1336 1111 812 300 558 394 520 625 669 852 555 122 6
0 0 0 0 0 0 0 0 0 0 27 122 101 172 357 1030 1080 1396 1413 1505 1302 916 889 799 742 654 510 466 471 524 713 890 958 883 868 937 1185 1208 1245 1206 893 775 1076 430 197 73 127 19 0
0 0 0 0 0 0 0 0 0 0 0 0 66 228 992 1160 918 1261 1568 1612 1643 1358 1154 1034 1022 830 607 337 332 387 564 844 960 871 737 621 552 703 754 710 719 707 608 414 273 210 18 20 200
0 0 0 0 0 0 0 0 0 0 0 44 148 7 212 1101 1204 1230 1044 1635 1785 1781 1563 1282 1190 906 537 177 366 290 358 603 825 810 596 477 388 265 215 259 414 427 406 399 351 422 448 455 380
0 0 0 0 0 0 0 0 0 0 0 0 53 53 249 1267 1277 1243 980 954 1307 1675 1801 1568 1474 1172 661 255 473 465 535 558 633 749 593 415 230 102 83 11 27 28 67 1 0 50 84 55 34
0 0 0 0 0 0 0 0 0 0 0 3 279 150 394 1344 1109 955 738 907 665 889 858 934 1342 1394 1029 675 700 708 696 671 600 547 685 601 242 43 0 0 0 0 0 0 0 0 0 0 0
0 0 0 0 0 0 0 0 0 0 0 0 14 81 442 1040 500 165 616 788 441 173 35 39 63 341 588 544 691 888 707 681 671 475 385 263 63 11 0 0 0 0 0 0 0 0 0 0 0
0 0 0 0 0 0 0 0 0 0 0 0 1 252 719 695 522 395 328 244 21 0 0 0 0 192 85 149 892 855 564 609 313 141 27 0 0 0 0 0 0 0 0 0 0 0 0 0 0
0 0 0 0 0 0 0 0 0 0 0 0 0 41 248 374 236 138 0 1 0 0 0 0 0 0 24 0 0 4 1 62 0 0 0 0 0 0 0 0 0 0 0 0 0 0 1 0 0
0 0 0 0 0 0 0 0 0 0 0 0 0 0 0 0 0 0 0 0 0 0 0 0 0 0 0 0 0 0 0 0 0 0 0 0 0 0 0 0 0 0 0 0 0 0 0 0 0
0 0 0 0 0 0 0 0 0 0 0 0 0 0 0 0 0 0 0 0 0 0 0 0 0 0 0 0 0 0 0 0 0 0 0 0 0 0 0 0 0 0 0 0 0 0 0 0 0
0 0 0 0 0 0 0 0 0 0 0 0 0 0 0 0 0 0 0 0 0 0 0 0 0 0 0 0 0 0 0 0 0 0 0 0 0 0 0 0 0 0 0 0 0 0 0 0 0
0 0 0 0 0 0 0 0 0 0 0 0 0 0 0 0 0 0 0 0 0 0 0 0 0 0 0 0 0 0 0 0 0 0 0 0 0 0 0 0 0 0 0 0 0 0 0 0 0
0 0 0 0 0 0 0 0 0 0 0 0 0 0 0 0 0 0 0 0 0 0 0 0 0 0 0 0 0 0 0 0 0 0 0 0 0 0 0 0 0 0 0 0 0 0 0 0 0
0 0 0 0 0 0 0 0 0 0 0 0 0 0 0 0 0 0 0 0 0 0 0 0 0 0 0 0 0 0 0 0 0 0 0 0 0 0 0 0 0 0 0 0 0 0 0 0 0
0 0 0 0 0 0 0 0 0 0 0 0 0 0 0 0 0 0 0 0 0 0 0 0 0 0 0 0 0 0 0 0 0 0 0 0 0 0 0 0 0 0 0 0 0 0 0 0 0
0 0 0 0 0 0 0 0 0 0 0 0 0 0 0 0 0 0 0 0 0 0 0 0 0 0 0 0 0 0 0 0 0 0 0 0 0 0 0 0 0 0 0 0 0 0 0 0 0
0 0 0 0 0 0 0 0 0 0 0 0 0 0 0 0 0 0 0 0 0 0 0 0 0 0 0 0 0 0 0 0 0 0 0 0 0 0 0 0 0 0 0 0 0 0 0 0 0
0 0 0 0 0 0 0 0 0 0 0 0 0 0 0 0 0 0 0 0 0 0 0 0 0 0 0 0 0 0 0 0 0 0 0 0 0 0 0 0 0 0 0 0 0 0 0 0 0
0 0 0 0 0 0 0 0 0 0 0 0 0 0 0 0 0 0 0 0 0 0 0 0 0 0 0 0 0 0 0 0 0 0 0 0 0 0 0 0 0 0 0 0 0 0 0 0 0
0 0 0 0 0 0 0 0 0 0 0 0 0 0 0 0 0 0 0 0 0 0 0 0 0 0 0 0 0 0 0 0 0 0 0 0 0 0 0 0 0 0 0 0 0 0 0 0 0
0 0 0 0 0 0 0 0 0 0 0 0 0 0 0 0 0 0 0 0 0 0 0 0 0 0 0 0 0 0 0 0 0 0 0 0 0 0 0 0 0 0 0 0 0 0 0 0 0
0 0 0 0 0 0 0 0 0 0 0 0 0 0 0 0 0 0 0 0 0 0 0 0 0 0 0 0 0 0 0 0 0 0 0 0 0 0 0 0 0 0 0 0 0 0 0 0 0
0 0 0 0 0 0 0 0 0 0 0 0 0 0 0 0 0 0 0 0 0 0 0 0 0 0 0 0 0 0 0 0 0 0 0 0 0 0 0 0 0 0 0 0 0 0 0 0 0
0 0 0 0 0 8 7 0 0 0 0 1 0 0 0 0 0 0 0 0 0 0 0 0 0 0 0 0 0 0 0 0 0 0 0 0 0 0 0 0 0 0 0 0 0 0 0 0 0
0 0 0 0 0 0 0 0 0 0 0 0 0 0 0 0 0 0 0 0 0 0 0 0 0 0 0 0 0 0 0 0 0 0 0 0 0 0 0 0 0 0 0 0 0 0 0 0 0

GFSSGP_con_mlcape_009.txt.gz
CAPE
0 0 0 0 0 0 0 0 0 0 114 180 178 109 99 196 99 56 680 472 84 52 211 478 981 1282 1433 1399 1283 1740 1978 2048 1892 1837 1640 1451 1136 811 598 469 565 261 438 410 300 645 1211 577 365
0 0 0 0 0 0 0 0 0 24 211 257 321 434 432 436 634 803 773 454 175 148 144 356 760 987 1058 1162 1345 1478 1522 1754 1981 2079 1974 1845 1608 1257 963 879 529 277 271 868 947 685 1025 653 486
0 0 0 0 0 0 0 0 0 115 104 24 407 585 617 521 941 962 802 538 410 315 168 269 529 715 723 685 761 950 1269 1483 1675 2071 2178 2070 1994 1818 1682 1074 817 528 358 742 866 925 810 411 145
0 0 0 0 0 0 0 0 1 64 131 342 463 472 687 702 981 1017 827 725 580 328 249 196 414 428 297 247 274 374 481 763 1130 1409 1695 1926 1956 1867 1689 1236 740 367 426 726 999 865 515 284 192
0 0 0 0 0 0 0 0 0 0 63 121 154 340 647 856 993 976 986 952 492 442 452 301 232 259 311 338 362 365 668 859 996 1316 1177 1362 1518 1419 1185 828 778 823 583 747 857 1292 1032 722 310
0 0 0 0 0 0 0 0 0 0 15 37 107 133 396 906 1159 1092 1150 1171 487 494 528 511 438 359 250 378 483 605 753 838 864 858 975 1193 1261 1293 1334 1164 686 687 946 1173 516 380 245 404 171
0 0 0 0 0 0 0 0 0 0 0 0 115 196 589 930 1229 1281 1412 1289 770 855 802 765 762 672 512 348 357 521 648 768 796 608 636 715 734 810 917 942 1011 1082 962 774 409 562 233 47 111
0 0 0 0 0 0 0 0 0 0 0 51 47 17 514 940 1181 1400 1496 1468 1144 984 932 929 921 799 423 217 342 358 523 711 774 657 618 538 480 443 454 491 626 520 509 406 297 308 390 470 397
0 0 0 0 0 0 0 0 0 0 0 0 10 0 175 864 1021 1182 1367 1426 1515 1308 1085 1041 1036 812 375 93 227 331 433 520 699 714 592 400 281 131 74 86 109 170 103 41 17 16 9 0 0
0 0 0 0 0 0 0 0 0 0 0 0 10 41 411 1036 1007 878 1098 1483 1538 1587 1427 1188 1154 972 588 246 376 426 470 508 515 597 453 400 193 83 37 6 0 0 0 0 0 0 0 0 0
0 0 0 0 0 0 0 0 0 0 0 0 0 11 685 1195 1155 882 965 1168 1164 1367 1434 1030 1061 1071 869 679 403 526 495 464 390 332 398 299 163 13 0 0 0 0 0 0 0 0 0 0 0
0 0 0 0 0 0 0 0 0 0 0 0 0 13 566 752 722 295 302 605 549 544 54 20 46 136 44 292 409 667 588 422 417 261 91 13 0 0 0 0 0 0 0 0 0 0 0 0 0
0 0 0 0 0 0 0 0 0 0 0 0 0 10 129 275 61 57 117 109 77 2 0 0 0 6 0 14 133 407 238 380 195 24 0 0 0 0 0 0 0 0 0 0 0 0 0 0 0
0 0 0 0 0 0 0 0 0 0 0 0 0 6 112 161 70 67 20 3 1 0 0 0 0 0 0 0 0 0 0 5 0 0 0 0 0 0 0 0 0 0 0 0 0 0 0 0 0
0 0 0 0 0 0 0 0 0 0 0 0 0 0 2 48 6 0 0 0 0 0 0 0 0 0 0 0 0 0 0 0 0 0 0 0 0 0 0 0 0 0 0 0 0 0 0 0 0
0 0 0 0 0 0 0 0 0 0 0 0 0 0 0 0 0 0 0 0 0 0 0 0 0 0 0 0 0 0 0 0 0 0 0 0 0 0 0 0 0 0 0 0 0 0 0 0 0
0 0 0 0 0 0 0 0 0 0 0 0 0 0 0 0 0 0 0 0 0 0 0 0 0 0 0 0 0 0 0 0 0 0 0 0 0 0 0 0 0 0 0 0 0 0 0 0 0
0 0 0 0 0 0 0 0 0 0 0 0 0 0 0 0 0 0 0 0 0 0 0 0 0 0 0 0 0 0 0 0 0 0 0 0 0 0 0 0 0 0 0 0 0 0 0 0 0
0 0 0 0 0 0 0 0 0 0 0 0 0 0 0 0 0 0 0 0 0 0 0 0 0 0 0 0 0 0 0 0 0 0 0 0 0 0 0 0 0 0 0 0 0 0 0 0 0
0 0 0 0 0 0 0 0 0 0 0 0 0 0 0 0 0 0 0 0 0 0 0 0 0 0 0 0 0 0 0 0 0 0 0 0 0 0 0 0 0 0 0 0 0 0 0 0 0
0 0 0 0 0 0 0 0 0 0 0 0 0 0 0 0 0 0 0 0 0 0 0 0 0 0 0 0 0 0 0 0 0 0 0 0 0 0 0 0 0 0 0 0 0 0 0 0 0
0 0 0 0 0 0 0 0 0 0 0 0 0 0 0 0 0 0 0 0 0 0 0 0 0 0 0 0 0 0 0 0 0 0 0 0 0 0 0 0 0 0 0 0 0 0 0 0 0
0 0 0 0 0 0 0 0 0 0 0 0 0 0 0 0 0 0 0 0 0 0 0 0 0 0 0 0 0 0 0 0 0 0 0 0 0 0 0 0 0 0 0 0 0 0 0 0 0
0 0 0 0 0 0 0 0 0 0 0 0 0 0 0 0 0 0 0 0 0 0 0 0 0 0 0 0 0 0 0 0 0 0 0 0 0 0 0 0 0 0 0 0 0 0 0 0 0
0 0 0 0 0 0 0 0 0 0 0 0 0 0 0 0 0 0 0 0 0 0 0 0 0 0 0 0 0 0 0 0 0 0 0 0 0 0 0 0 0 0 0 0 0 0 0 0 0
0 0 0 0 0 0 0 0 0 0 0 0 0 0 0 0 0 0 0 0 0 0 0 0 0 0 0 0 0 0 0 0 0 0 0 0 0 0 0 0 0 0 0 0 0 0 0 0 0
0 0 0 0 0 0 0 0 0 0 0 0 0 0 0 0 0 0 0 0 0 0 0 0 0 0 0 0 0 0 0 0 0 0 0 0 0 0 0 0 0 0 0 0 0 0 0 0 0
0 0 0 0 0 0 0 0 0 0 0 0 0 0 0 0 0 0 0 0 0 0 0 0 0 0 0 0 0 0 0 0 0 0 0 0 0 0 0 0 0 0 0 0 0 0 0 0 0
0 0 0 0 0 0 1 0 0 0 0 0 0 0 0 0 0 0 0 0 0 0 0 0 0 0 0 0 0 0 0 0 0 0 0 0 0 0 0 0 0 0 0 0 0 0 0 0 0
0 0 0 0 0 0 0 0 0 0 0 0 0 0 0 0 0 0 0 0 0 0 0 0 0 0 0 0 0 0 0 0 0 0 0 0 0 0 0 0 0 0 0 0 0 0 0 0 0

GFSSGP_con_mlcape_012.txt.gz
CAPE
0 0 0 0 0 0 0 0 0 0 15 67 66 16 45 194 127 107 508 453 85 174 462 779 1076 1268 1253 1314 1735 1977 1899 1877 1793 1699 1403 1211 1294 1244 1194 1068 653 545 506 614 457 846 1359 915 652
0 0 0 0 0 0 0 0 0 19 165 200 204 218 234 217 514 647 527 148 91 114 300 673 917 971 1131 1214 1267 1446 1726 1948 2164 2107 1971 1719 1378 981 1059 861 589 510 651 985 1139 1020 1623 1162 889
0 0 0 0 0 0 0 0 21 167 97 142 293 440 491 563 714 693 558 271 219 149 252 598 671 656 660 761 917 1146 1410 1659 1976 2154 2182 2146 2014 1850 1663 1137 1000 771 540 786 795 1066 1158 914 372
0 0 0 0 0 0 0 0 113 145 167 325 432 296 551 584 828 797 556 451 302 138 138 307 254 270 225 155 140 243 480 888 1326 1609 1987 2141 2103 1962 1802 1426 958 608 630 817 1004 1148 1014 613 633
0 0 0 0 0 0 0 0 0 12 55 110 159 268 558 785 807 724 692 521 204 93 100 230 270 271 259 230 196 290 555 741 867 1073 1288 1579 1576 1404 1180 859 694 829 745 952 1230 1100 1027 893 812
0 0 0 0 0 0 0 0 0 0 3 114 97 98 339 841 779 803 812 461 230 173 223 242 298 275 387 438 407 483 561 703 755 932 1189 1444 1369 1328 1283 1149 908 851 1059 1228 707 417 402 163 125
0 0 0 0 0 0 0 0 0 0 0 0 103 55 476 978 886 955 987 457 352 408 428 379 432 405 372 304 326 424 595 634 666 620 682 681 772 819 797 808 875 808 792 772 714 605 612 525 481
0 0 0 0 0 0 0 0 0 0 0 0 48 11 182 858 1055 1070 1118 652 563 542 538 569 569 508 286 178 279 287 413 600 670 580 496 389 352 333 326 273 376 309 258 232 204 222 203 128 23
0 0 0 0 0 0 0 0 0 0 0 0 0 34 73 730 975 1148 1266 1070 888 774 703 673 661 543 124 4 110 231 337 448 616 540 394 205 106 29 19 49 67 70 48 42 25 16 12 11 1
0 0 0 0 0 0 0 0 0 0 0 0 0 13 416 805 1087 1258 1399 1360 1232 1113 1027 809 787 683 358 63 111 138 232 325 385 465 211 113 60 5 0 0 0 0 0 0 0 0 0 0 0
0 0 0 0 0 0 0 0 0 0 0 0 0 2 551 810 885 1179 1286 1322 1129 1227 1289 1008 879 780 576 405 112 123 183 202 194 222 231 137 81 1 0 0 0 0 0 0 0 0 0 0 0
0 0 0 0 0 0 0 0 0 0 0 0 0 9 386 792 743 748 859 954 1042 1209 1320 1070 609 363 243 311 302 176 304 206 209 160 98 42 4 0 0 0 0 0 0 0 0 0 0 0 0
0 0 0 0 0 0 0 0 0 0 0 0 0 24 206 480 506 545 523 541 568 858 904 198 7 0 0 18 81 133 324 322 200 132 11 0 0 0 0 0 0 0 0 0 0 0 0 0 0
0 0 0 0 0 0 0 0 0 0 0 0 0 0 107 218 193 85 4 21 134 220 119 0 0 0 0 0 0 5 43 15 15 3 0 0 0 0 0 0 0 0 0 0 0 0 0 0 0
0 0 0 0 0 0 0 0 0 0 0 0 0 0 0 1 1 0 0 0 0 0 0 0 0 0 0 0 0 0 0 0 0 0 0 0 0 0 0 0 0 0 0 0 0 0 0 0 0
0 0 0 0 0 0 0 0 0 0 0 0 0 0 0 0 0 0 0 0 0 0 0 0 0 0 0 0 0 0 0 0 0 0 0 0 0 0 0 0 0 0 0 0 0 0 0 0 0
0 0 0 0 0 0 0 0 0 0 0 0 0 0 0 0 0 0 0 0 0 0 0 0 0 0 0 0 0 0 0 0 0 0 0 0 0 0 0 0 0 0 0 0 0 0 0 0 0
0 0 0 0 0 0 0 0 0 0 0 0 0 0 0 0 0 0 0 0 0 0 0 0 0 0 0 0 0 0 0 0 0 0 0 0 0 0 0 0 0 0 0 0 0 0 0 0 0
0 0 0 0 0 0 0 0 0 0 0 0 0 0 0 0 0 0 0 0 0 0 0 0 0 0 0 0 0 0 0 0 0 0 0 0 0 0 0 0 0 0 0 0 0 0 0 0 0
0 0 0 0 0 0 0 0 0 0 0 0 0 0 0 0 0 0 0 0 0 0 0 0 0 0 0 0 0 0 0 0 0 0 0 0 0 0 0 0 0 0 0 0 0 0 0 0 0
0 0 0 0 0 0 0 0 0 0 0 0 0 0 0 0 0 0 0 0 0 0 0 0 0 0 0 0 0 0 0 0 0 0 0 0 0 0 0 0 0 0 0 0 0 0 0 0 0
0 0 0 0 0 0 0 0 0 0 0 0 0 0 0 0 0 0 0 0 0 0 0 0 0 0 0 0 0 0 0 0 0 0 0 0 0 0 0 0 0 0 0 0 0 0 0 0 0
0 0 0 0 0 0 0 0 0 0 0 0 0 0 0 0 0 0 0 0 0 0 0 0 0 0 0 0 0 0 0 0 0 0 0 0 0 0 0 0 0 0 0 0 0 0 0 0 0
0 0 0 0 0 0 0 0 0 0 0 0 0 0 0 0 0 0 0 0 0 0 0 0 0 0 0 0 0 0 0 0 0 0 0 0 0 0 0 0 0 0 0 0 0 0 0 0 0
0 0 0 0 0 0 0 0 0 0 0 0 0 0 0 0 0 0 0 0 0 0 0 0 0 0 0 0 0 0 0 0 0 0 0 0 0 0 0 0 0 0 0 0 0 0 0 0 0
0 0 0 0 0 0 0 0 0 0 0 0 0 0 0 0 0 0 0 0 0 0 0 0 0 0 0 0 0 0 0 0 0 0 0 0 0 0 0 0 0 0 0 0 0 0 0 2 1
0 0 0 0 0 0 0 0 0 0 0 0 0 0 0 0 0 0 0 0 0 0 0 0 0 0 0 0 0 0 0 0 0 0 0 0 0 0 0 0 0 0 0 0 0 0 0 0 0
0 0 0 0 0 0 0 0 0 0 0 0 0 0 0 0 0 0 0 0 0 0 0 0 0 0 0 0 0 0 0 0 0 0 0 0 0 0 0 0 0 0 0 0 0 0 0 0 0
0 0 0 0 0 0 0 0 0 0 0 0 0 0 0 0 0 0 0 0 0 0 0 0 0 0 0 0 0 0 0 0 0 0 0 0 0 0 0 0 0 0 0 0 0 0 0 0 0
0 0 0 0 0 0 0 0 0 0 0 0 0 0 0 0 0 0 0 0 0 0 0 0 0 0 0 0 0 0 0 0 0 0 0 0 0 0 0 0 0 0 0 0 0 0 0 0 0

GFSSGP_con_mlcape_015.txt.gz
CAPE
0 0 0 0 0 0 0 0 0 0 44 58 41 35 62 166 91 59 353 280 78 185 586 824 995 982 1096 1521 1743 1711 1546 1623 1507 1223 1147 1326 1323 1301 1304 886 683 529 805 1049 692 880 1261 996 960
0 0 0 0 0 0 0 0 0 24 126 121 146 190 158 22 424 418 328 130 101 191 516 833 895 998 1017 1082 1423 1722 1946 1977 1968 1785 1611 1389 1254 1275 1237 889 672 645 781 1014 1344 1372 1649 1185 759
0 0 0 0 0 0 0 0 62 90 23 138 197 277 254 243 521 495 505 144 88 78 382 719 790 785 846 976 1135 1318 1557 1967 2166 2169 2134 1995 1782 1528 1328 1003 979 905 775 653 1062 1272 1303 1074 662
0 0 0 0 0 0 0 19 104 84 123 274 194 65 348 462 615 671 343 223 151 64 318 524 488 412 299 331 394 548 809 1181 1454 1745 1930 2063 2077 1963 1679 1496 1039 633 740 1077 1181 1189 1258 1027 897
0 0 0 0 0 0 0 4 73 10 61 176 147 109 209 649 711 595 480 364 129 43 240 422 289 267 300 268 277 362 414 490 624 775 945 1354 1392 1240 1020 668 586 879 825 1168 1081 562 507 287 350
0 0 0 0 0 0 0 0 1 4 38 61 79 70 196 585 588 627 559 339 99 7 92 251 306 351 316 328 321 378 474 531 528 602 813 1040 1067 1074 1003 951 956 999 1001 948 648 701 663 339 544
0 0 0 0 0 0 0 0 0 0 0 0 47 3 277 600 694 739 667 251 120 104 115 246 349 323 261 152 167 289 392 508 442 433 433 473 536 509 521 599 615 598 434 407 371 339 406 324 190
0 0 0 0 0 0 0 0 0 0 0 3 59 0 68 665 828 863 784 307 225 281 336 358 480 426 269 214 139 185 305 434 431 352 248 177 147 127 82 76 139 136 131 134 105 102 90 38 9
0 0 0 0 0 0 0 0 0 0 0 0 0 15 47 879 883 998 978 423 455 464 514 568 583 493 202 43 149 190 256 368 463 374 196 122 182 81 43 2 1 0 1 0 0 0 0 0 0
0 0 0 0 0 0 0 0 0 0 0 0 0 0 230 931 1002 1130 1184 871 801 792 785 733 715 679 358 17 162 214 276 457 559 621 355 209 149 80 2 0 0 0 0 0 0 0 0 0 0
0 0 0 0 0 0 0 0 0 0 0 0 0 0 408 960 1082 1232 1272 1305 964 987 1023 883 869 820 544 329 161 202 263 351 361 409 382 268 192 102 40 0 0 0 0 0 0 0 0 0 0
0 0 0 0 0 0 0 0 0 0 0 0 0 30 346 585 929 1147 1285 1348 1189 1177 1280 1280 1013 825 735 601 505 263 323 391 430 377 246 242 125 29 0 0 0 0 0 0 0 0 0 0 0
0 0 0 0 0 0 0 0 0 0 0 0 0 8 144 410 613 987 1205 1238 1091 1161 1361 1446 1141 619 227 29 174 255 298 465 529 399 295 180 67 0 0 0 0 0 0 0 0 0 0 0 0
0 0 0 0 0 0 0 0 0 0 0 0 0 0 96 326 482 489 484 703 627 800 1000 1045 463 7 0 0 5 69 185 359 307 255 252 111 28 0 0 0 0 0 0 0 0 0 0 0 0
0 0 0 0 0 0 0 0 0 0 0 0 0 0 28 177 489 330 276 182 90 205 307 488 1 0 0 0 0 0 0 0 0 0 9 15 1 0 0 0 0 0 0 0 0 0 0 0 0
0 0 0 0 0 0 0 0 0 0 0 0 0 0 0 45 138 5 0 0 0 0 0 4 0 0 0 0 0 0 0 0 0 0 0 0 0 0 0 0 0 0 0 0 0 0 0 0 0
0 0 0 0 0 0 0 0 0 0 0 0 0 0 0 0 0 0 0 0 0 0 0 0 0 0 0 0 0 0 0 0 0 0 0 0 0 0 0 0 0 0 0 0 0 0 0 0 0
0 0 0 0 0 0 0 0 0 0 0 0 0 0 0 0 0 0 0 0 0 0 0 0 0 0 0 0 0 0 0 0 0 0 0 0 0 0 0 0 0 0 0 0 0 0 0 0 0
0 0 0 0 0 0 0 0 0 0 0 0 0 0 0 0 0 0 0 0 0 0 0 0 0 0 0 0 0 0 0 0 0 0 0 0 0 0 0 0 0 0 0 0 0 0 0 0 0
0 0 0 0 0 0 0 0 0 0 0 0 0 0 0 0 0 0 0 0 0 0 0 0 0 0 0 0 0 0 0 0 0 0 0 0 0 0 0 0 0 0 0 0 0 0 0 0 0
0 0 0 0 0 0 0 0 0 0 0 0 0 0 0 0 0 0 0 0 0 0 0 0 0 0 0 0 0 0 0 0 0 0 0 0 0 0 0 0 0 0 0 0 0 0 0 0 0
0 0 0 0 0 0 0 0 0 0 0 0 0 0 0 0 0 0 0 0 0 0 0 0 0 0 0 0 0 0 0 0 0 0 0 0 0 0 0 0 0 0 0 0 0 0 0 0 0
0 0 0 0 0 0 0 0 0 0 0 0 0 0 0 0 0 0 0 0 0 0 0 0 0 0 0 0 0 0 0 0 0 0 0 0 0 0 0 0 0 0 0 0 0 0 0 0 0
0 0 0 0 0 0 0 0 0 0 0 0 0 0 0 0 0 0 0 0 0 0 0 0 0 0 0 0 0 0 0 0 0 0 0 0 0 0 0 0 0 0 0 0 0 1 3 4 1
0 0 0 0 0 0 0 0 0 0 0 0 0 0 0 0 0 0 0 0 0 0 0 0 0 0 0 0 0 0 0 0 0 0 0 0 0 0 0 0 0 0 0 2 4 2 1 1 0
0 0 0 0 0 0 0 0 0 0 0 0 0 0 0 0 0 0 0 0 0 0 0 0 0 0 0 0 0 0 0 0 0 0 0 0 0 0 0 0 0 0 0 0 0 0 0 0 0
0 0 0 0 0 0 0 0 0 0 0 0 0 0 0 0 0 0 0 0 0 0 0 0 0 0 0 0 0 0 0 0 0 0 0 0 0 0 0 0 0 0 0 0 0 0 0 0 1
0 0 0 0 0 0 0 0 0 0 0 0 0 0 0 0 0 0 0 0 0 0 0 0 0 0 0 0 0 0 0 0 0 0 0 0 0 0 0 1 0 0 0 1 5 14 3 0 0
0 0 0 0 0 0 0 0 0 0 0 0 0 0 0 0 0 0 0 0 0 0 0 0 0 0 0 0 0 0 0 0 0 0 0 0 0 0 0 0 0 0 0 1 1 2 2 0 0
0 0 0 0 0 0 0 0 0 0 0 0 0 0 0 0 0 0 0 0 0 0 0 0 0 0 0 0 0 0 0 0 0 0 0 0 0 0 0 0 0 0 0 0 0 0 0 0 0

GFSSGP_con_mlcape_018.txt.gz
CAPE
0 0 0 0 0 0 0 0 0 35 27 80 72 51 119 249 169 325 445 383 99 230 671 885 896 958 1359 1532 1483 1416 1449 1338 1159 1204 1370 1370 1504 1412 1175 874 722 684 883 972 1129 1073 1605 1343 1132
0 0 0 0 0 0 0 0 0 29 71 62 87 115 83 91 287 407 446 350 143 271 585 862 887 892 975 1345 1575 1789 1928 1763 1714 1577 1402 1416 1454 1401 1223 878 664 704 807 1132 1418 1574 1578 1319 843
0 0 0 0 0 0 0 0 33 84 85 143 160 219 219 239 316 363 320 114 101 271 549 773 740 737 736 861 991 1133 1400 1650 1729 1829 1683 1503 1401 1256 1135 1150 1056 917 881 983 1326 1545 1362 1022 780
0 0 0 0 0 0 0 0 17 94 171 213 69 62 221 449 483 482 359 173 36 81 246 396 455 249 170 169 254 519 886 1116 1318 1469 1667 1894 1837 1619 1375 1287 977 757 881 1019 1206 1043 896 757 893
0 0 0 0 0 0 0 26 84 58 120 200 161 108 171 566 737 626 560 345 47 51 199 221 187 170 150 200 329 405 441 456 581 746 994 1155 1146 1052 856 591 497 680 792 1116 821 568 353 193 222
0 0 0 0 0 0 7 38 0 0 37 102 51 35 116 644 673 634 567 302 27 46 238 163 91 129 138 188 250 288 320 313 380 482 632 710 727 707 734 853 899 885 788 712 547 618 608 605 553
0 0 0 0 0 0 0 0 0 0 0 0 1 16 165 449 442 536 407 182 70 62 153 359 406 275 80 91 125 259 358 311 285 268 271 297 278 301 346 423 430 322 256 264 252 218 211 168 72
0 0 0 0 0 0 0 0 0 0 0 58 78 0 50 286 586 588 412 173 154 272 340 629 717 649 585 457 9 118 237 292 265 203 127 85 79 52 6 48 52 56 47 31 12 0 5 2 0
0 0 0 0 0 0 0 0 0 0 0 0 0 23 108 606 812 737 528 339 408 599 851 941 928 923 686 361 317 76 111 234 293 342 90 233 435 400 257 0 0 0 0 0 0 0 0 0 0
0 0 0 0 0 0 0 0 0 0 0 0 0 26 373 911 1039 1045 856 531 704 864 1095 1232 1345 1280 933 142 500 534 490 541 738 863 847 453 646 537 87 4 0 0 0 0 0 0 0 0 0
0 0 0 0 0 0 0 0 0 0 0 0 0 0 529 882 1068 1049 783 176 489 893 1067 1369 1594 1628 1245 498 307 186 183 373 568 996 1003 785 723 519 419 216 8 0 0 0 0 0 0 0 0
0 0 0 0 0 0 0 0 0 0 0 0 0 0 289 596 621 468 346 181 228 595 1205 1611 1708 1712 1548 670 339 218 206 273 403 521 1056 716 414 348 306 0 0 0 0 0 0 0 0 0 0
0 0 0 0 0 0 0 0 0 0 0 0 0 1 49 101 201 324 293 189 418 836 1274 1804 2001 1876 1130 743 339 446 461 299 498 375 310 580 234 82 24 0 0 0 0 0 0 0 0 0 0
0 0 0 0 0 0 0 0 0 0 0 0 0 0 0 24 25 101 450 509 881 948 1361 1935 2140 1799 541 134 320 203 273 201 233 62 33 340 270 20 0 0 0 0 0 0 0 0 0 0 0
0 0 0 0 0 0 0 0 0 0 0 0 0 0 0 13 26 58 63 327 581 746 1083 1686 1890 904 217 121 31 2 1 16 0 0 20 53 85 25 11 0 0 0 0 0 0 0 0 0 0
0 0 0 0 0 0 0 0 0 0 0 0 0 0 0 0 98 147 489 481 304 251 500 1030 917 290 184 36 4 0 0 0 0 0 0 0 0 0 0 0 0 0 0 0 0 0 0 0 0
0 0 0 0 0 0 0 0 0 0 0 0 0 0 0 0 139 290 35 15 13 11 68 438 632 175 60 20 3 7 9 7 0 0 0 0 0 0 0 0 0 0 0 0 0 0 0 0 0
0 0 0 0 0 0 0 0 0 0 0 0 0 0 0 0 4 1 0 0 0 0 38 315 277 54 18 0 0 0 0 0 0 0 0 0 0 0 0 0 0 0 2 0 0 0 0 0 0
0 0 0 0 0 0 0 0 0 0 0 0 0 0 0 0 0 0 0 0 0 0 10 14 4 0 0 0 0 0 0 0 0 0 0 0 0 0 0 0 0 0 0 0 0 0 0 0 0
0 0 0 0 0 0 0 0 0 0 0 0 0 0 0 0 0 0 0 0 0 0 0 0 0 0 0 0 0 0 0 0 0 0 0 0 0 0 0 0 0 0 0 0 0 0 0 0 0
0 0 0 0 0 0 0 0 0 0 0 0 0 0 0 0 0 0 0 0 0 0 0 0 0 0 0 0 0 0 0 0 0 0 0 0 0 0 0 0 0 0 0 0 0 0 0 0 0
0 0 0 0 0 0 0 0 0 0 0 0 0 0 0 0 0 0 0 0 0 0 0 0 0 0 0 0 0 0 0 0 0 0 0 0 0 0 0 0 0 0 0 0 0 0 0 3 5
0 0 0 0 0 0 0 0 0 0 0 0 0 0 0 0 0 0 0 0 0 0 0 0 0 0 0 0 0 0 0 0 0 0 0 0 0 0 0 0 0 0 0 0 0 0 0 2 4
0 0 0 0 0 0 0 0 0 0 0 0 0 0 0 0 0 0 0 0 0 0 0 0 0 0 0 0 0 0 0 0 0 0 0 0 0 0 0 0 0 0 0 1 3 1 0 1 0
0 0 0 0 0 0 0 0 0 0 0 0 0 0 0 0 0 0 0 0 0 0 0 0 0 0 0 0 0 0 0 0 0 0 0 0 0 0 0 0 0 0 5 2 4 3 1 1 1
0 0 0 0 0 0 0 0 0 0 0 0 0 0 0 0 0 0 0 0 0 0 0 0 0 0 0 0 0 0 0 0 0 0 0 0 0 0 0 1 4 10 4 11 0 1 0 0 0
0 0 0 0 0 0 0 0 0 0 0 0 0 0 0 0 0 0 0 0 0 0 0 0 0 0 0 0 0 0 0 0 0 0 0 0 0 0 2 7 8 11 7 8 7 7 4 13 11
0 0 0 0 0 0 0 0 0 0 0 0 0 0 0 0 0 0 0 0 0 0 0 0 0 0 1 1 0 0 0 0 0 0 0 0 0 1 11 14 7 1 0 0 0 3 3 16 13
0 0 0 0 0 0 0 0 0 0 0 0 0 0 0 0 0 1 0 0 0 1 4 1 1 4 0 0 0 0 0 0 0 0 0 0 6 10 5 1 4 6 7 4 15 6 2 4 9
0 0 0 0 0 0 0 0 0 0 0 0 0 0 0 1 2 4 0 0 1 1 0 0 0 0 0 0 0 0 0 0 0 0 0 0 6 6 2 6 7 9 7 4 2 0 0 0 0

GFSSGP_con_mlcape_021.txt.gz
CAPE
0 0 0 0 0 0 0 8 13 10 8 0 0 7 12 101 241 267 268 130 297 556 625 747 735 1074 1234 1291 1363 1388 1391 1280 1209 1311 1287 1420 1382 1262 1058 888 773 890 981 1139 1381 1544 1755 1271 1036
0 0 0 0 0 0 0 0 27 31 0 0 0 9 2 34 245 317 201 98 203 426 653 810 646 811 1143 1301 1462 1643 1615 1459 1406 1297 1306 1446 1477 1276 1048 830 739 789 821 965 1338 1489 1406 1129 829
0 0 0 0 0 0 0 0 18 0 0 10 0 8 77 79 149 286 117 88 168 312 543 594 572 558 651 803 969 1150 1454 1559 1590 1545 1558 1395 1350 1303 1242 1166 1037 891 1004 1274 1350 1285 1304 967 820
0 0 0 0 0 0 0 20 18 0 24 14 0 9 198 210 230 146 72 50 140 172 290 333 182 56 98 168 309 492 665 965 1250 1501 1740 1756 1671 1484 1281 1148 882 908 1035 1281 977 772 549 495 656
0 0 0 0 0 1 20 20 16 55 47 10 2 0 197 486 350 177 77 0 0 0 21 35 0 34 151 223 253 260 294 399 517 818 1007 1087 1084 924 730 544 542 706 982 938 740 593 334 228 295
0 0 0 0 1 0 3 0 0 22 19 0 1 13 284 411 286 239 111 0 0 9 22 7 0 50 90 127 178 193 215 271 402 580 694 677 575 564 620 657 677 558 483 377 374 465 467 416 325
0 0 1 0 0 0 0 0 0 0 0 0 0 0 136 239 279 192 29 0 0 1 48 82 156 125 0 4 44 121 162 152 137 122 160 147 131 137 173 183 173 140 114 97 85 71 72 54 12
0 0 0 0 0 0 0 0 0 0 0 0 0 0 52 206 208 76 0 0 0 8 214 288 320 255 363 352 1 29 126 143 115 59 20 11 101 72 7 176 13 0 0 0 0 0 0 0 0
0 0 0 0 0 0 0 0 0 0 0 0 0 0 1 180 153 83 13 2 68 227 478 440 334 251 117 39 52 56 68 97 317 316 120 266 465 337 265 1 0 0 0 0 0 0 0 0 0
0 0 0 0 0 0 0 0 0 0 0 0 0 0 173 287 213 169 47 55 173 354 374 628 927 519 154 0 94 125 56 342 353 473 506 346 410 413 63 16 0 0 0 0 0 0 0 0 0
0 0 0 0 0 0 0 0 0 0 0 0 0 0 112 247 314 280 194 51 52 280 307 582 1479 1060 516 102 4 41 47 93 275 534 560 304 368 390 212 123 112 99 2 3 0 0 0 0 0
0 0 0 0 0 0 0 0 0 0 0 0 0 0 22 208 300 304 234 40 18 130 161 596 1675 1479 731 192 58 23 32 136 165 359 340 166 114 83 31 1 0 0 1 0 0 0 0 1 0
0 0 0 0 0 0 0 0 0 0 0 0 0 0 3 165 255 100 112 143 65 118 201 516 1407 2128 868 485 92 83 104 155 278 195 73 75 24 0 0 0 0 0 0 0 0 0 0 0 0
0 0 0 0 0 0 0 0 0 0 0 0 0 0 0 1 34 85 120 187 192 199 310 570 1239 2182 1134 76 157 52 140 108 92 7 0 12 45 42 12 6 1 0 0 0 0 0 0 0 0
0 0 0 0 0 0 0 0 0 0 0 0 0 0 0 0 0 5 73 205 187 198 331 726 1359 1915 1107 154 86 1 0 1 0 0 1 10 23 8 17 1 0 0 0 0 0 0 1 2 1
0 0 0 0 0 0 0 1 0 0 0 0 0 0 0 0 0 2 0 20 98 201 258 523 1274 1680 928 118 31 1 0 0 0 1 3 0 0 0 0 0 0 0 0 0 0 0 0 1 3
0 0 0 0 0 0 0 2 0 0 0 0 0 0 0 0 0 33 189 94 37 21 101 411 1171 1228 617 122 44 25 18 1 6 11 0 0 0 0 0 0 2 6 1 11 9 0 0 0 0
0 0 0 0 0 0 0 0 0 0 0 0 0 0 0 0 7 173 12 0 0 11 87 353 955 874 301 88 27 0 0 0 0 0 0 0 0 0 0 0 0 0 0 0 0 0 0 6 2
0 0 0 0 0 0 0 0 0 0 0 0 0 0 0 0 0 0 0 0 0 38 190 403 384 50 13 1 0 0 0 0 0 0 0 0 0 0 0 0 0 0 0 0 0 0 0 0 36
0 0 0 0 0 0 0 0 0 0 0 0 0 0 0 0 0 0 0 0 0 0 0 0 0 0 0 0 0 0 0 0 0 0 0 0 0 0 0 0 0 0 0 0 0 0 0 0 14
0 0 0 0 0 0 0 0 0 0 0 0 0 0 0 0 0 0 0 0 0 0 0 0 0 0 0 0 0 0 0 0 0 0 0 0 0 0 0 0 0 0 0 0 0 0 0 0 0
0 0 0 0 0 1 0 25 0 0 0 0 0 0 0 0 0 0 0 0 0 0 0 0 0 0 0 0 0 0 0 0 0 0 0 0 0 0 0 0 0 0 0 0 0 0 0 1 1
0 0 0 0 0 0 0 0 0 0 0 0 0 0 0 0 0 0 0 0 0 0 0 0 0 0 0 0 0 0 0 0 0 0 0 0 0 0 0 0 0 0 0 0 2 8 2 0 0
0 0 0 0 0 0 4 0 42 0 0 0 0 0 0 0 0 0 0 0 0 0 0 0 0 0 0 0 0 0 0 0 0 0 0 0 0 0 0 0 0 0 2 10 2 0 1 2 0
0 0 2 31 4 68 0 0 10 0 0 0 0 0 0 0 0 0 0 0 0 0 0 0 0 0 0 0 0 0 0 0 0 0 0 0 0 0 0 0 1 9 11 2 4 3 6 0 0
0 0 4 0 0 12 0 0 0 0 0 0 0 0 0 0 0 0 0 0 1 1 2 0 0 0 0 0 0 1 3 1 0 0 0 0 0 0 0 4 15 5 11 3 2 12 13 9 6
0 0 0 0 0 0 0 0 0 0 0 0 0 0 0 0 0 0 0 3 5 3 0 0 0 0 0 1 9 8 6 8 3 0 0 0 0 0 1 15 10 3 0 0 0 4 14 13 10
0 0 0 0 0 0 2 0 19 0 0 8 0 0 0 0 0 2 2 5 4 0 0 1 4 8 11 3 7 9 5 6 0 0 0 0 1 12 11 20 5 0 2 1 3 11 19 11 10
0 2 0 0 0 0 0 0 1 0 0 0 0 0 0 0 1 7 9 7 13 11 5 5 3 4 4 4 3 2 2 1 0 0 3 12 15 11 14 13 2 20 10 5 5 10 8 8 10
0 0 0 0 0 0 0 0 0 0 0 0 2 4 2 1 14 16 15 9 6 4 3 3 1 1 1 0 0 0 0 4 8 10 12 7 8 12 17 13 1 5 7 6 12 11 7 5 6

GFSSGP_con_mlcape_024.txt.gz
CAPE
0 0 0 0 0 0 0 10 33 4 2 0 0 0 1 45 290 143 71 319 605 544 575 692 887 999 1031 1080 1144 1184 1091 1009 1074 1195 1343 1318 1198 1041 931 895 936 954 1011 1225 1495 1553 1510 1081 828
0 0 0 0 0 0 0 7 2 0 0 0 0 9 1 42 131 66 106 361 441 716 583 559 748 950 1066 1179 1313 1382 1385 1384 1203 1114 1297 1317 1182 1036 886 791 733 796 955 1077 1369 1508 1183 873 668
0 0 0 0 0 0 0 30 0 0 0 8 0 35 27 55 92 60 65 190 338 525 466 380 410 517 611 704 836 1041 1171 1226 1300 1401 1328 1282 1258 1241 1196 1007 916 955 1084 1165 1141 945 862 744 675
0 0 0 0 0 0 0 11 0 0 0 10 27 52 59 65 64 21 51 149 168 261 210 40 1 11 20 86 293 536 722 899 1089 1311 1533 1526 1429 1216 982 760 700 726 972 952 757 387 177 141 175
0 0 0 0 1 6 7 3 0 0 3 0 22 90 189 74 22 3 10 0 2 12 0 0 0 0 40 77 128 134 160 281 444 571 700 752 669 622 523 523 675 769 729 534 361 303 258 274 258
0 0 0 2 0 0 1 0 3 27 4 0 19 113 239 112 33 0 0 0 0 0 0 0 0 0 4 37 63 76 80 107 198 282 295 284 280 296 290 292 225 182 150 120 126 135 115 86 44
0 0 0 0 0 0 0 0 0 7 1 0 0 27 172 157 62 0 0 0 0 0 0 20 0 0 0 8 23 30 31 21 29 36 38 39 33 42 72 93 50 8 1 0 0 0 0 0 0
0 0 0 0 0 0 0 0 0 0 0 0 0 15 92 179 49 0 0 0 0 0 61 152 259 286 169 6 0 3 3 3 5 0 0 34 52 27 85 136 0 0 0 0 0 0 0 0 0
0 0 0 0 0 0 0 0 0 0 0 0 0 0 149 157 35 0 0 0 0 61 266 185 92 73 491 106 2 16 4 134 182 176 87 110 346 244 275 0 0 0 0 0 0 0 0 0 0
0 0 0 0 0 0 0 0 0 0 0 0 0 86 213 102 66 0 0 0 30 203 286 465 209 62 7 1 82 419 269 465 530 536 438 461 247 318 92 66 0 0 0 0 0 0 0 0 0
0 0 0 0 0 0 0 0 0 0 0 0 0 153 211 133 85 12 0 0 84 157 106 684 801 384 455 40 1 165 215 226 585 708 336 401 199 295 184 146 79 0 0 6 0 0 0 6 0
0 0 0 0 0 0 0 0 0 0 0 0 0 0 179 109 78 69 72 21 2 197 240 1112 1210 891 401 320 108 26 144 153 336 205 285 101 97 69 0 0 0 0 0 0 0 0 0 0 0
0 0 0 0 0 0 0 0 0 0 0 0 0 0 84 117 138 222 178 60 23 119 161 502 1248 1743 881 289 191 123 103 314 166 190 115 71 60 10 4 0 0 0 0 0 0 0 0 0 0
0 0 0 0 0 0 0 0 0 0 0 0 0 0 8 164 202 173 125 144 114 85 202 635 1052 1919 1360 353 190 86 217 250 209 25 2 22 41 60 22 1 0 0 0 0 0 0 0 0 0
0 0 0 0 0 0 0 0 0 0 0 0 0 0 0 1 21 88 79 154 133 121 303 477 412 1595 1481 358 135 33 62 5 4 3 0 9 6 3 0 0 0 6 12 4 0 0 0 0 0
0 0 0 0 0 0 0 0 0 0 0 0 0 0 0 11 10 25 56 110 122 158 208 147 855 1671 1649 582 123 12 15 4 0 0 4 0 0 16 8 32 23 28 31 18 27 14 2 0 0
0 0 4 0 0 0 0 0 0 0 0 0 0 0 0 0 17 37 19 48 43 84 85 138 769 1425 1286 580 148 39 33 19 10 23 7 1 0 1 0 0 1 8 4 15 26 25 15 8 0
0 0 0 0 0 0 0 0 0 0 0 0 0 0 0 0 12 152 11 0 0 29 97 246 916 799 375 162 61 10 2 1 0 0 0 0 0 0 0 0 0 0 0 0 0 0 0 0 0
0 0 0 0 0 0 0 0 0 0 0 0 0 0 0 0 0 0 0 0 5 110 204 185 84 11 0 0 0 0 0 0 0 0 0 0 0 0 0 0 0 0 0 0 0 0 0 0 0
0 0 0 0 0 0 0 0 0 0 0 0 0 0 0 0 0 0 0 0 0 0 0 0 0 0 0 0 0 0 0 0 0 0 0 0 0 0 0 0 0 0 0 0 0 0 0 0 0
0 0 0 0 0 0 0 0 0 0 0 0 0 0 0 0 0 0 0 0 0 0 0 0 0 0 0 0 0 0 0 0 0 0 0 0 0 0 0 0 0 0 0 0 0 0 0 0 0
0 0 0 0 0 0 0 1 0 0 0 0 0 0 0 0 0 0 0 0 0 0 0 0 0 0 0 0 0 0 0 0 0 0 0 0 0 0 0 0 0 0 0 0 0 6 0 0 0
0 0 0 0 0 0 0 16 43 0 0 0 0 0 0 0 0 0 0 0 0 0 0 0 0 0 0 0 0 0 0 0 0 0 0 0 0 0 0 0 0 0 0 0 4 0 0 0 0
0 0 0 0 0 1 2 45 11 0 0 0 0 0 0 0 0 0 0 0 0 0 0 0 0 0 0 0 0 0 0 0 0 0 0 0 0 0 0 0 0 0 2 3 0 0 0 0 0
0 0 19 47 48 34 35 7 70 0 0 0 0 0 0 0 0 0 0 0 0 1 0 0 0 0 0 0 2 1 0 1 0 0 0 0 0 0 0 0 3 2 3 1 0 0 0 0 0
0 0 13 0 19 29 0 0 0 0 0 0 0 0 0 0 0 0 0 0 1 3 0 0 0 0 0 0 0 0 0 0 0 0 0 0 0 0 0 18 9 14 11 4 3 3 9 15 12
0 0 0 0 0 0 0 44 2 0 0 0 0 0 2 0 0 0 3 1 0 0 0 0 0 0 0 0 0 0 0 0 0 0 0 0 0 0 4 1 18 2 0 0 1 0 0 4 16
0 0 0 3 0 0 0 0 28 2 0 0 0 0 0 0 1 0 0 0 0 0 0 0 0 0 0 0 0 0 0 0 0 0 0 0 0 0 3 8 0 5 17 0 1 3 8 4 5
0 2 0 0 0 0 0 0 0 3 0 0 0 0 0 0 0 0 0 0 0 0 0 1 0 0 0 0 0 0 0 0 2 2 0 0 0 2 5 9 5 12 4 0 0 0 9 1 1
0 0 0 0 0 0 0 0 0 0 0 0 0 0 0 0 0 0 0 4 5 4 3 3 0 0 0 0 0 0 0 0 0 0 0 0 1 12 9 12 16 14 15 9 15 15 14 13 3

GFSSGP_con_mlcape_027.txt.gz
CAPE
0 0 0 0 0 0 0 0 0 2 0 1 7 55 74 99 84 24 379 420 292 413 613 716 783 875 940 995 941 855 805 891 1047 1083 1077 988 909 816 844 770 751 761 900 1078 1370 1500 1312 978 685
0 0 0 0 0 0 0 0 0 0 0 17 8 10 4 10 47 191 383 440 346 394 574 722 795 860 969 1051 1073 1094 1076 959 988 1054 1006 938 882 841 750 632 606 824 1067 1145 1141 1083 966 797 677
0 0 0 0 0 0 0 0 0 0 0 0 0 0 17 15 56 187 441 449 335 246 325 424 476 530 617 762 829 900 976 1090 1111 1108 1081 1056 1100 1096 857 752 713 742 916 718 628 343 201 164 208
0 0 0 0 0 0 8 0 0 0 0 0 0 0 0 0 51 63 276 211 115 74 52 4 2 20 112 216 349 488 648 812 984 1121 1153 1136 966 763 472 355 419 587 635 531 286 91 26 33 65
0 0 0 0 0 0 1 0 0 0 15 22 3 0 3 0 14 54 114 10 0 0 0 0 0 5 10 2 4 14 54 132 216 311 408 446 389 349 373 429 466 405 186 121 106 86 57 20 5
0 0 0 0 1 0 0 0 17 0 0 70 57 34 0 0 0 0 7 0 0 0 0 0 0 0 0 0 0 0 10 40 101 110 99 74 46 73 103 82 36 10 0 0 0 0 0 0 0
0 0 0 0 0 0 0 0 0 0 0 14 81 67 12 0 0 0 0 0 0 0 0 0 0 0 0 0 0 0 0 0 0 0 0 1 35 38 17 0 0 0 0 0 0 0 0 0 0
0 0 0 0 0 0 0 0 0 0 0 36 56 108 90 0 0 0 0 0 0 0 0 0 0 0 0 0 0 0 0 0 0 0 0 12 21 51 55 0 0 0 0 0 0 0 0 0 0
0 0 0 0 0 0 0 0 0 0 0 0 7 145 95 0 0 0 0 0 0 0 11 59 31 8 0 0 0 0 7 15 31 20 25 75 97 98 137 44 0 0 0 0 0 0 0 0 0
0 0 0 0 0 0 0 0 0 0 0 9 144 172 74 0 0 0 0 0 7 119 114 93 81 127 15 0 2 0 64 192 175 219 168 132 191 166 169 25 30 0 0 0 0 0 0 0 0
0 0 0 0 0 0 0 0 0 0 0 0 164 174 62 23 0 0 0 0 46 159 267 126 5 5 49 48 22 84 88 261 348 302 93 48 136 137 43 36 3 0 0 0 0 0 0 0 0
0 0 0 0 0 0 0 0 0 0 0 0 169 154 65 41 7 0 0 0 80 183 404 281 4 68 37 0 0 0 151 239 433 224 50 13 43 0 0 0 0 0 0 0 0 0 0 0 0
0 0 0 0 0 0 0 0 0 0 0 0 172 143 96 57 42 24 1 5 100 170 507 513 277 19 27 0 0 10 77 84 53 75 18 3 28 0 0 0 0 0 0 0 0 0 0 0 0
0 0 0 0 0 0 0 0 0 0 0 0 16 124 58 57 60 69 58 36 26 156 578 856 937 791 678 175 40 60 77 74 64 12 0 0 4 17 10 0 0 0 0 0 0 0 0 0 0
0 0 0 0 0 0 0 0 0 0 0 0 0 1 7 66 92 180 142 33 92 34 467 1107 1187 616 687 190 80 18 153 3 2 0 0 0 0 0 0 0 3 0 4 3 0 0 0 0 0
0 0 0 0 0 0 0 0 0 0 0 0 0 0 0 73 48 160 68 51 139 235 267 1038 896 119 316 120 42 3 2 0 0 0 0 0 0 0 0 0 0 0 0 0 0 0 0 0 0
0 0 0 0 0 0 0 0 0 0 0 0 0 0 0 0 3 32 8 6 15 7 27 212 499 815 483 84 32 0 0 0 0 0 0 0 0 0 0 0 0 0 0 0 0 0 0 0 0
0 0 0 0 0 0 0 0 0 0 0 0 0 0 0 0 1 0 0 0 3 58 104 18 0 12 49 1 2 0 0 0 0 0 0 0 0 0 0 0 0 0 0 0 0 0 0 0 0
0 0 0 0 0 0 0 0 0 0 0 0 0 0 0 0 0 0 0 0 0 0 0 0 0 0 0 0 0 0 0 0 0 0 0 0 0 0 0 0 0 0 0 0 0 0 0 0 0
0 0 0 0 0 0 0 0 0 0 0 0 0 0 0 0 0 0 0 0 0 0 0 0 0 0 0 0 0 0 0 0 0 0 0 0 0 0 0 0 0 0 0 0 0 0 0 0 0
0 0 0 0 0 0 0 0 0 0 0 0 0 0 0 0 0 0 0 0 0 0 0 0 0 0 0 0 0 0 0 0 0 0 0 0 0 0 0 0 0 0 0 0 0 0 0 0 0
0 0 0 0 0 0 0 0 0 0 0 0 0 0 0 0 0 0 0 0 0 0 0 0 0 0 0 0 0 0 0 0 0 0 0 0 0 0 0 0 0 0 0 0 0 0 0 0 0
0 0 0 0 0 0 0 0 0 0 0 0 0 0 0 0 0 0 0 0 0 0 0 0 0 0 0 0 0 0 0 0 0 0 0 0 0 0 0 0 0 0 0 0 0 0 0 0 0
0 0 0 0 0 0 9 7 0 0 0 0 0 0 0 0 0 0 0 0 0 0 0 0 0 0 0 0 0 0 0 0 0 0 0 0 0 0 0 0 0 0 0 0 1 1 0 0 0
0 0 1 0 4 0 23 11 5 0 0 0 0 0 0 0 0 0 0 0 0 0 0 0 0 0 0 0 0 0 0 0 0 0 0 0 0 0 0 0 0 0 1 0 6 7 0 0 0
0 0 0 0 0 0 0 0 0 0 0 0 0 0 0 0 0 0 0 0 0 0 0 0 0 0 0 0 0 0 0 0 0 0 0 0 0 0 0 0 0 0 0 0 0 0 0 0 0
0 0 0 0 0 0 0 0 0 0 0 0 0 0 0 0 0 0 0 0 0 0 0 0 0 0 0 0 0 0 0 0 0 0 0 0 0 0 0 0 0 0 1 0 0 0 0 1 0
0 0 0 0 0 0 0 2 3 0 0 0 0 0 0 0 0 0 0 0 0 0 0 0 0 0 0 0 0 0 0 0 0 0 0 0 0 0 0 0 2 5 10 8 2 1 0 0 0
0 0 0 0 0 0 0 0 1 9 3 0 0 0 0 0 0 0 0 0 0 0 0 0 0 0 0 0 0 0 0 0 0 0 0 0 0 0 0 6 16 10 1 0 3 1 0 2 6
0 0 0 0 0 0 0 0 0 0 0 0 0 0 0 0 0 0 0 0 0 0 0 0 0 0 0 0 0 0 0 0 0 0 0 0 0 0 0 0 0 0 0 0 6 0 0 0 0

GFSSGP_con_mlcape_030.txt.gz
CAPE
0 0 0 0 0 0 0 0 0 1 38 50 31 46 49 57 59 129 330 301 386 494 652 636 690 740 680 636 665 761 901 929 946 912 873 779 757 731 622 556 601 849 983 1339 1285 1119 906 670 514
0 0 0 0 0 0 0 0 1 0 25 12 18 46 55 154 336 435 246 343 397 538 646 696 795 876 893 878 836 783 906 967 970 910 831 773 733 619 561 581 746 834 835 880 775 639 457 355 351
0 0 0 0 0 0 0 0 0 0 0 0 6 11 55 240 360 365 272 315 394 449 575 643 709 807 804 785 795 856 825 832 880 876 800 873 803 685 594 402 421 553 524 493 229 69 17 8 13
0 0 0 0 0 0 3 0 0 1 0 0 1 38 56 106 295 377 269 197 201 268 304 324 338 378 405 468 613 718 840 860 935 965 980 826 596 270 186 203 357 365 209 56 5 0 0 0 0
0 0 0 0 2 4 0 0 0 0 2 2 1 16 13 213 373 306 93 32 0 0 0 0 0 0 0 56 132 242 362 399 446 396 337 269 196 123 68 32 9 0 0 0 0 0 0 0 0
0 0 0 0 2 0 0 0 11 16 4 1 9 54 4 188 147 15 0 0 0 0 0 0 0 0 0 0 0 3 9 34 48 51 34 24 1 0 0 0 0 0 0 0 0 0 0 0 0
0 0 0 0 0 0 0 0 0 19 40 46 41 24 0 0 2 0 0 0 0 0 0 0 0 0 0 0 0 0 0 0 0 0 7 0 6 0 0 0 0 0 0 0 0 0 0 0 0
0 0 0 0 0 0 0 0 0 0 26 51 36 0 0 0 0 0 0 0 0 0 0 0 0 0 0 0 0 0 0 0 0 0 9 12 18 16 0 0 0 0 0 0 0 0 0 0 0
0 0 0 0 0 0 0 0 0 5 64 1 56 0 0 0 0 0 0 0 0 0 0 0 0 0 0 0 0 0 0 0 0 28 45 50 45 61 71 3 0 0 0 0 0 0 0 0 0
0 0 0 0 0 0 0 0 0 0 2 62 94 12 0 0 0 0 0 0 0 0 0 0 0 0 0 0 0 7 57 43 42 70 85 87 118 75 133 81 1 0 0 0 0 0 0 0 0
0 0 0 0 0 0 0 0 0 0 0 44 87 23 0 0 0 0 0 0 4 16 23 23 11 0 0 5 0 0 108 191 182 177 196 144 195 221 128 2 0 0 0 0 0 0 0 0 0
0 0 0 0 0 0 0 0 0 0 0 62 107 62 0 0 0 0 0 0 63 105 88 18 6 90 38 12 12 70 76 243 345 271 116 5 114 0 0 0 0 0 0 0 0 0 0 0 0
0 0 0 0 0 0 0 0 0 0 21 168 152 47 13 0 0 0 0 0 85 163 78 0 0 18 0 1 0 24 172 264 445 121 0 2 0 0 0 0 0 0 0 0 0 0 0 0 0
0 0 0 0 0 0 0 0 0 0 24 146 117 65 11 12 6 0 0 0 85 246 251 84 10 27 7 13 1 0 26 161 75 74 12 0 8 0 0 0 0 0 0 0 0 0 0 0 0
0 0 0 0 0 0 0 0 0 0 42 93 117 87 26 36 31 34 10 0 8 247 517 410 360 559 447 300 31 2 59 30 81 46 5 0 0 0 0 0 0 0 0 0 0 0 0 0 0
0 0 0 0 0 0 0 0 0 0 0 29 70 70 38 5 9 0 0 0 0 364 732 724 430 118 76 217 154 18 2 0 1 0 0 0 0 0 0 0 0 0 0 0 0 0 0 0 0
0 0 0 0 0 0 0 0 0 0 0 0 0 0 0 0 0 0 0 3 9 409 918 721 403 213 0 191 154 0 0 0 0 0 0 0 0 0 0 0 0 0 0 0 0 0 0 0 0
0 0 0 0 0 0 0 0 0 0 0 0 0 0 0 0 0 0 0 0 0 44 255 205 384 106 57 39 0 0 0 0 0 0 0 0 0 0 0 0 0 0 0 0 0 0 0 0 0
0 0 0 0 0 0 0 0 0 0 0 0 0 0 0 0 0 0 0 0 0 0 0 0 0 0 0 0 0 0 0 0 0 0 0 0 0 0 0 0 0 0 0 0 0 0 0 0 0
0 0 0 0 0 0 0 0 0 0 0 0 0 0 0 0 0 0 0 0 0 0 0 0 0 0 0 0 0 0 0 0 0 0 0 0 0 0 0 0 0 0 0 0 0 0 0 0 0
0 0 0 0 0 0 0 0 0 0 0 0 0 0 0 0 0 0 0 0 0 0 0 0 0 0 0 0 0 0 0 0 0 0 0 0 0 0 0 0 0 0 0 0 0 0 0 0 0
0 0 0 0 0 0 0 0 0 0 0 0 0 0 0 0 0 0 0 0 0 0 0 0 0 0 0 0 0 0 0 0 0 0 0 0 0 0 0 0 0 0 0 0 0 0 0 2 1
0 0 0 0 0 0 0 0 0 0 0 0 0 0 0 0 0 0 0 0 0 0 0 0 0 0 0 0 0 0 0 0 0 0 0 0 0 0 0 0 0 0 0 0 0 0 0 0 0
0 0 0 0 0 0 0 0 0 0 0 0 0 0 0 0 0 0 0 0 0 0 0 0 0 0 0 0 0 0 0 0 0 0 0 0 0 0 0 0 0 0 0 0 0 0 0 0 0
0 0 0 0 0 0 0 0 0 0 0 0 0 0 0 0 0 0 0 0 0 0 0 0 0 0 0 0 0 0 0 0 0 0 0 0 0 0 0 0 0 0 0 0 0 0 0 0 0
0 0 0 0 0 0 0 0 0 0 0 0 0 0 0 0 0 0 0 0 0 0 0 0 0 0 0 0 0 0 0 0 0 0 0 0 0 0 0 0 0 0 0 0 0 0 0 0 0
0 0 0 0 0 0 0 0 0 0 0 0 0 0 0 0 0 0 0 0 0 0 0 0 0 0 0 0 0 0 0 0 0 0 0 0 0 0 0 0 0 0 0 0 2 2 3 0 0
0 0 0 0 0 0 0 0 1 0 0 0 0 0 0 0 0 0 0 0 0 0 0 0 0 0 0 0 0 0 0 0 0 0 0 0 0 0 0 0 0 0 0 0 0 0 0 0 1
0 0 0 0 0 0 0 0 0 0 0 0 0 0 0 0 0 0 0 0 0 0 0 0 0 0 0 0 0 0 0 0 0 0 0 0 0 0 0 0 0 0 0 0 0 0 0 0 0
0 0 0 0 0 0 0 0 0 0 0 0 0 0 0 0 0 0 0 0 0 0 0 0 0 0 0 0 0 0 0 0 0 0 0 0 0 0 0 0 0 0 0 0 0 0 0 0 0

GFSSGP_con_mlcape_033.txt.gz
CAPE
0 0 0 0 0 0 0 0 0 0 0 9 2 36 58 95 81 105 196 252 374 521 434 415 411 483 560 640 707 721 794 804 761 710 641 668 614 536 453 505 724 961 1055 840 766 710 561 330 200
0 0 0 0 0 0 0 0 0 5 0 2 5 43 105 233 378 329 287 367 494 529 566 625 597 595 579 633 763 838 892 891 824 758 720 676 594 561 580 605 568 444 586 578 325 117 12 0 0
0 0 0 0 0 0 0 3 36 17 10 6 0 3 71 428 341 263 275 435 526 565 666 755 731 725 691 658 684 792 794 784 783 765 788 752 660 509 230 146 221 251 186 63 8 0 0 0 0
0 0 0 0 0 0 0 3 55 11 13 10 0 0 19 253 332 264 347 358 398 452 564 665 674 632 594 640 654 656 705 731 753 805 782 635 284 62 38 68 57 1 0 0 0 0 0 0 0
0 0 0 0 0 0 0 0 28 44 33 5 29 27 70 246 271 208 286 317 326 314 334 330 305 347 432 543 614 626 623 651 652 516 286 39 25 20 27 9 0 0 0 0 0 0 0 0 0
0 0 0 8 3 0 7 17 37 27 34 24 84 148 201 289 250 143 161 123 42 0 0 0 12 37 62 74 94 147 181 173 85 22 2 5 11 0 0 0 0 0 0 0 0 0 0 0 0
0 0 0 0 9 0 0 31 26 17 45 55 49 29 286 280 110 21 0 0 0 0 0 0 0 0 0 0 0 0 0 0 0 0 0 10 0 0 0 0 0 0 0 0 0 0 0 0 0
0 0 0 0 0 0 0 0 108 102 42 20 15 9 150 80 0 0 0 0 0 0 0 0 0 0 0 0 0 0 0 0 0 0 0 0 0 13 0 0 0 0 0 0 0 0 0 0 0
0 0 0 0 0 0 0 1 0 50 30 6 30 14 42 0 0 0 0 0 0 0 0 0 0 0 0 0 0 0 0 0 0 0 15 19 31 59 74 5 0 0 0 0 0 0 0 0 0
0 0 0 0 0 0 0 0 53 97 48 21 0 0 0 0 0 0 0 0 0 0 0 0 0 0 0 0 0 0 0 0 0 28 55 51 74 48 127 96 53 11 0 0 0 0 0 0 0
0 0 0 0 0 0 0 0 0 28 11 12 0 0 0 0 0 0 0 0 0 0 0 0 0 0 0 0 0 0 23 25 42 95 58 71 113 127 94 75 0 0 0 0 0 0 0 0 0
0 0 0 0 0 0 0 0 0 0 3 43 0 0 0 0 0 0 0 0 0 0 0 0 0 0 0 0 0 30 70 141 170 166 182 91 67 71 5 0 0 0 0 0 0 0 0 0 0
0 0 0 0 0 0 0 0 0 0 41 74 0 0 0 0 0 0 0 0 2 20 6 0 3 10 0 11 15 21 55 198 307 315 75 0 4 0 0 0 0 0 0 0 0 0 0 0 0
0 0 0 0 0 0 0 0 0 0 104 83 25 0 0 0 0 0 0 0 12 21 68 0 17 83 20 0 12 52 100 173 221 279 21 0 0 0 0 0 0 0 0 0 0 0 0 0 0
0 0 0 0 0 0 0 0 0 0 132 125 81 41 1 0 0 0 0 0 29 113 93 6 39 2 4 0 0 0 0 51 212 89 0 0 0 0 0 0 0 0 0 0 0 0 0 0 0
0 0 0 0 0 0 0 0 0 7 89 86 93 18 0 0 0 0 0 0 0 168 142 8 134 0 10 83 2 0 0 0 0 1 0 0 0 0 0 0 0 0 0 0 0 0 0 0 0
0 0 0 0 0 0 0 0 0 0 56 29 12 0 0 0 0 0 0 0 0 260 256 25 4 0 0 2 0 0 0 0 0 0 0 0 0 0 0 0 0 0 0 0 0 0 0 0 0
0 0 0 0 0 0 0 0 0 0 0 0 0 0 0 0 0 0 0 0 9 126 125 3 0 0 0 0 0 0 0 0 0 0 0 0 0 0 0 0 0 0 0 0 0 0 0 0 0
0 0 0 0 0 0 0 0 0 0 0 0 0 0 0 0 0 0 0 0 0 0 0 0 0 0 0 0 0 0 0 0 0 0 0 0 0 0 0 0 0 0 0 0 0 0 0 0 0
0 0 0 0 0 0 0 0 0 0 0 0 0 0 0 0 0 0 0 0 0 0 0 0 0 0 0 0 0 0 0 0 0 0 0 0 0 0 0 0 0 0 0 0 0 0 0 0 0
0 0 0 0 0 0 0 0 0 0 0 0 0 0 0 0 0 0 0 0 0 0 0 0 0 0 0 0 0 0 0 0 0 0 0 0 0 0 0 0 0 0 0 0 0 0 0 0 0
0 0 0 0 0 0 0 0 0 0 0 0 0 0 0 0 0 0 0 0 0 0 0 0 0 0 0 0 0 0 0 0 0 0 0 0 0 0 0 0 0 0 0 0 0 0 0 0 0
0 0 0 0 0 0 0 0 0 0 0 0 0 0 0 0 0 0 0 0 0 0 0 0 0 0 0 0 0 0 0 0 0 0 0 0 0 0 0 0 0 0 0 0 0 0 0 0 0
0 0 0 0 0 0 0 0 0 0 0 0 0 0 0 0 0 0 0 0 0 0 0 0 0 0 0 0 0 0 0 0 0 0 0 0 0 0 0 0 0 0 0 0 0 0 0 0 0
0 0 0 0 0 0 0 0 0 0 0 0 0 0 0 0 0 0 0 0 0 0 0 0 0 0 0 0 0 0 0 0 0 0 0 0 0 0 0 0 0 0 0 0 0 0 0 0 0
0 0 0 0 0 0 0 0 0 0 0 0 0 0 0 0 0 0 0 0 0 0 0 0 0 0 0 0 0 0 0 0 0 0 0 0 0 0 0 0 0 0 0 0 0 0 0 0 0
0 0 0 0 0 0 0 0 0 0 0 0 0 0 0 0 0 0 0 0 0 0 0 0 0 0 0 0 0 0 0 0 0 0 0 0 0 0 0 0 0 0 0 0 0 0 0 0 0
0 0 0 0 0 0 0 0 0 0 0 0 0 0 0 0 0 0 0 0 0 0 0 0 0 0 0 0 0 0 0 0 0 0 0 0 0 0 0 0 0 0 0 0 0 0 0 3 5
0 0 0 0 0 0 0 0 0 0 0 0 0 0 0 0 0 0 0 0 0 0 0 0 0 0 0 0 0 0 0 0 0 0 0 0 0 0 0 0 0 0 0 0 0 0 0 0 0
0 0 0 0 0 0 0 0 0 0 0 0 0 0 0 0 0 0 0 0 0 0 0 0 0 0 0 0 0 0 0 0 0 0 0 0 0 0 0 0 0 0 0 0 0 0 0 0 0

GFSSGP_con_mlcape_036.txt.gz
CAPE
0 0 0 0 0 0 0 0 0 18 33 8 40 44 69 96 84 69 257 298 389 370 310 361 417 516 553 607 695 727 704 623 572 522 539 506 452 398 440 592 759 687 503 486 302 104 31 3 0
0 0 0 0 0 0 0 0 1 23 35 38 17 43 126 146 384 312 340 455 489 395 401 412 503 572 680 725 715 764 738 705 650 631 582 484 456 495 524 366 218 409 368 169 31 3 0 0 0
0 0 0 0 0 0 0 19 111 51 16 9 3 0 21 124 356 296 388 557 541 473 542 560 545 561 674 734 756 792 752 699 640 610 588 554 474 245 79 83 147 111 28 20 1 0 0 0 0
0 0 0 0 0 0 0 97 131 40 20 5 0 0 0 138 330 315 456 462 492 504 626 664 596 546 554 640 723 673 637 589 559 629 520 369 116 41 42 41 6 0 0 0 0 0 0 0 0
0 0 0 0 0 0 0 126 76 27 13 4 0 0 23 314 330 373 419 413 440 494 597 612 583 563 559 546 535 560 543 504 562 428 246 68 29 11 0 0 0 0 0 0 0 0 0 0 0
0 0 0 0 0 0 21 163 73 22 53 10 27 37 138 285 322 339 335 368 383 450 449 436 394 397 446 526 482 427 407 393 337 83 32 4 0 0 0 0 0 0 0 0 0 0 0 0 0
0 0 0 0 0 6 76 53 22 30 4 19 80 60 262 358 188 226 256 266 217 107 61 80 103 117 169 164 120 156 165 89 39 7 0 0 0 0 0 0 0 0 0 0 0 0 0 0 0
0 0 0 0 2 8 9 36 0 19 36 18 104 41 270 295 88 114 69 1 0 0 0 0 0 0 0 0 0 0 0 0 0 0 4 0 0 0 0 0 0 0 0 0 0 0 0 0 0
0 0 0 0 0 5 0 55 0 7 25 2 0 121 343 151 15 0 0 0 0 0 0 0 0 0 0 0 0 0 0 0 0 15 5 7 0 0 2 0 0 0 0 0 0 0 0 0 0
0 0 0 0 1 4 0 0 11 80 48 1 0 23 151 56 1 0 0 0 0 0 0 0 0 0 0 0 0 0 0 0 0 7 22 10 10 5 62 69 38 12 0 0 0 0 0 0 0
0 0 0 0 0 0 0 0 39 82 31 2 0 85 67 0 0 0 0 0 0 0 0 0 0 0 0 0 0 0 0 0 1 18 31 51 54 49 55 25 0 0 0 0 0 0 0 0 0
0 0 0 0 0 0 0 0 79 19 0 11 17 39 0 0 0 0 0 0 0 0 0 0 0 0 0 0 0 0 1 11 31 110 106 80 92 73 36 0 0 0 0 0 0 0 0 0 0
0 0 0 0 0 0 0 0 0 0 43 0 21 0 0 0 0 0 0 0 0 0 0 0 0 0 0 0 0 3 39 108 125 177 197 97 24 11 0 0 0 0 0 0 0 0 0 0 0
0 0 0 0 0 0 0 0 0 0 51 0 4 0 0 0 0 0 0 0 0 0 0 0 0 0 0 0 0 0 6 51 140 189 76 2 0 0 0 0 0 0 0 0 0 0 0 0 0
0 0 0 0 0 0 0 0 0 0 38 0 2 0 0 0 0 0 0 0 0 0 0 0 0 2 0 0 0 0 11 22 57 4 0 0 0 0 0 0 0 0 0 0 0 0 0 0 0
0 0 0 0 0 0 0 0 0 14 33 8 1 0 0 0 0 0 0 0 0 0 3 0 0 0 0 0 0 0 0 0 0 0 0 0 0 0 0 0 0 0 0 0 0 0 0 0 0
0 0 0 0 0 0 0 0 0 37 91 32 16 1 0 0 0 0 0 0 0 1 11 0 0 0 0 0 0 0 0 0 0 0 0 0 0 0 0 0 0 0 0 0 0 0 0 0 0
0 0 0 0 0 0 0 0 0 0 64 15 2 0 0 0 0 0 0 0 0 1 11 1 0 0 0 0 0 0 0 0 0 0 0 0 0 0 0 0 0 0 0 0 0 0 0 0 0
0 0 0 0 0 0 0 0 0 0 0 0 0 0 0 0 0 0 0 0 8 11 41 20 17 0 0 0 0 0 0 0 0 0 0 0 0 0 0 0 0 0 0 0 0 0 0 0 0
0 0 0 0 0 0 0 0 0 0 0 0 0 0 0 0 0 0 0 0 0 0 0 0 0 0 0 0 0 0 0 0 0 0 0 0 0 0 0 0 0 0 0 0 0 0 0 0 0
0 0 0 0 0 0 0 0 0 0 0 0 0 0 0 0 0 0 0 0 0 0 0 0 0 0 0 0 0 0 0 0 0 0 0 0 0 0 0 0 0 0 0 0 0 0 0 0 0
0 0 0 0 0 0 0 0 0 0 0 0 0 0 0 0 0 0 0 0 0 0 0 0 0 0 0 0 0 0 0 0 0 0 0 0 0 0 0 0 0 0 0 0 0 0 0 0 0
0 0 0 0 0 0 0 0 0 0 0 0 0 0 0 0 0 0 0 0 0 0 0 0 0 0 0 0 0 0 0 0 0 0 0 0 0 0 0 0 0 0 0 0 0 0 0 0 0
0 0 0 0 0 0 0 0 0 0 0 0 0 0 0 0 0 0 0 0 0 0 0 0 0 0 0 0 0 0 0 0 0 0 0 0 0 0 0 0 0 0 0 0 0 0 0 0 0
0 0 0 0 0 0 0 0 0 0 0 0 0 0 0 0 0 0 0 0 0 0 0 0 0 0 0 0 0 0 0 0 0 0 0 0 0 0 0 0 0 0 0 0 0 0 0 0 0
0 0 0 0 0 0 0 0 0 0 0 0 0 0 0 0 0 0 0 0 0 0 0 0 0 0 0 0 0 0 0 0 0 0 0 0 0 0 0 0 0 0 0 0 0 0 0 0 0
0 0 0 0 0 0 0 0 0 0 0 0 0 0 0 0 0 0 0 0 0 0 0 0 0 0 0 0 0 0 0 0 0 0 0 0 0 0 0 0 0 0 0 0 0 0 1 0 0
0 0 0 0 0 0 0 0 0 0 0 0 0 0 0 0 0 0 0 0 0 0 0 0 0 0 0 0 0 0 0 0 0 0 0 0 0 0 0 0 0 0 0 3 3 9 5 0 0
0 0 0 0 0 0 0 0 0 0 0 0 0 0 0 0 0 0 0 0 0 0 0 0 0 0 0 0 0 0 0 0 0 0 0 0 0 0 0 0 0 0 0 0 1 0 0 0 0
0 0 0 0 0 0 0 0 0 0 0 0 0 0 0 0 0 0 0 0 0 0 0 0 0 0 0 0 0 0 0 0 0 0 0 0 0 0 0 0 0 0 0 0 0 0 0 0 0

GFSSGP_con_mlcape_039.txt.gz
CAPE
0 0 0 0 0 0 0 0 0 54 27 41 60 91 84 150 105 57 298 381 449 386 427 525 496 471 438 546 549 545 610 557 518 499 487 435 352 346 458 598 472 374 351 100 15 15 8 0 0
0 0 0 0 0 0 0 0 5 55 66 20 35 78 53 41 353 360 340 596 579 439 501 618 595 610 626 737 662 626 651 600 575 533 416 324 364 458 404 211 313 234 39 2 0 0 0 0 0
0 0 0 0 0 0 0 33 83 110 58 3 0 0 0 0 138 269 555 696 532 488 567 686 656 718 738 813 780 753 706 610 562 482 425 512 442 236 216 205 65 11 5 0 0 0 0 0 0
0 0 0 0 0 0 0 112 84 59 11 8 0 0 84 182 92 340 732 714 530 482 618 602 624 753 787 839 809 723 620 553 497 506 568 393 131 140 116 5 0 0 0 0 0 0 0 0 0
0 0 0 0 0 0 4 138 63 38 1 0 1 3 21 288 327 482 670 506 480 529 668 658 578 671 754 789 686 613 551 489 565 509 318 113 101 43 0 0 0 0 0 0 0 0 0 0 0
0 0 0 0 0 0 56 82 40 19 17 24 60 26 118 314 371 328 400 447 494 650 709 748 632 582 575 541 498 507 483 487 422 188 53 36 8 0 0 0 0 0 0 0 0 0 0 0 0
0 0 0 0 21 64 117 84 30 13 1 13 114 148 304 347 304 333 333 396 491 559 619 573 557 493 461 461 446 437 457 337 105 11 24 0 0 0 0 0 0 0 0 0 0 0 0 0 0
0 0 0 0 23 55 25 81 0 0 11 45 182 79 325 303 241 288 322 328 366 333 271 216 264 363 359 430 330 275 177 51 3 0 0 0 0 0 0 0 0 0 0 0 0 0 0 0 0
0 0 0 4 74 5 24 12 0 1 32 32 3 283 451 205 214 275 287 195 74 4 0 0 1 0 6 47 49 18 8 0 4 3 8 8 60 52 43 0 0 0 0 0 0 0 0 0 0
0 0 0 0 32 0 8 13 0 58 66 8 42 168 267 193 287 253 40 0 0 0 0 0 0 0 0 0 3 7 15 14 68 74 73 82 78 109 109 57 3 0 0 0 0 0 0 0 0
0 0 0 0 1 4 4 31 56 116 99 17 36 303 316 215 98 1 0 0 0 0 0 0 0 0 0 0 0 0 14 17 33 82 121 116 120 135 141 165 72 1 0 0 0 0 0 0 0
0 0 0 0 0 0 21 25 112 138 10 35 113 371 204 83 0 0 0 0 0 0 0 0 0 0 0 0 0 0 5 29 100 153 165 221 220 226 189 82 0 0 0 0 0 0 0 0 0
0 0 0 0 0 1 2 47 181 42 0 59 210 231 48 0 0 0 0 0 0 0 0 0 0 0 0 0 0 0 20 113 185 244 294 222 138 29 0 0 0 0 0 0 0 0 0 0 0
0 0 0 0 0 0 0 2 16 0 0 64 147 68 2 0 0 0 0 0 0 0 0 0 0 0 0 0 0 0 12 53 77 139 28 2 0 0 0 0 0 0 0 0 0 0 0 0 0
0 0 0 0 0 0 0 0 0 1 0 50 64 0 0 0 0 0 0 0 0 0 0 0 10 0 0 0 0 0 0 0 4 0 0 0 0 0 0 0 0 0 0 0 0 0 0 0 0
0 0 0 0 0 0 0 0 0 19 5 4 25 1 0 0 0 0 0 0 0 0 2 10 4 0 0 0 0 0 0 0 0 0 0 0 0 0 0 0 0 0 0 0 0 0 0 0 0
0 0 0 0 0 0 0 0 0 11 23 0 0 0 0 0 0 0 0 0 0 0 1 0 0 0 0 0 0 0 0 0 0 0 0 0 0 0 0 0 0 0 0 0 0 0 0 0 0
0 0 0 0 0 0 0 0 0 0 57 1 0 0 0 0 0 0 0 0 0 3 0 0 0 0 0 0 0 0 0 0 0 0 0 0 0 0 0 0 0 0 0 0 0 0 0 0 0
0 0 0 0 0 0 0 0 0 0 0 14 3 1 0 0 0 2 2 5 57 105 120 20 3 0 0 0 0 0 0 0 0 0 0 0 0 0 0 0 0 0 0 0 0 0 0 0 0
0 0 0 0 0 0 0 0 0 0 0 0 0 0 0 0 16 27 36 26 170 110 104 94 0 0 0 0 0 0 0 0 0 0 0 0 0 0 0 0 0 0 0 0 0 0 0 0 0
0 0 0 0 0 0 0 0 0 0 0 0 0 0 0 0 2 0 0 0 0 0 0 0 0 0 0 0 0 0 0 0 0 0 0 0 0 0 0 0 0 0 0 0 0 0 0 0 0
0 0 0 0 0 0 0 0 0 0 0 0 0 0 0 0 0 0 0 0 0 0 0 0 0 0 0 0 0 0 0 0 0 0 0 0 0 0 0 0 0 0 0 0 0 0 0 0 0
0 0 0 0 0 0 0 0 0 0 0 0 0 0 0 0 0 0 0 0 0 0 0 0 0 0 0 0 0 0 0 0 0 0 0 0 0 0 0 0 0 0 0 0 0 0 0 2 5
0 0 0 0 0 0 0 0 0 0 0 0 0 0 0 0 0 0 0 0 0 0 0 0 0 0 0 0 0 0 0 0 0 0 0 0 0 0 0 0 0 0 0 0 0 0 2 3 1
0 0 0 0 0 0 0 0 0 0 0 0 0 0 0 0 0 0 0 0 0 0 0 0 0 0 0 0 0 0 0 0 0 0 0 0 0 0 0 0 0 0 0 0 2 9 15 25 25
0 0 0 0 0 0 0 0 0 0 0 0 0 0 0 0 0 0 0 0 0 0 0 0 0 0 0 0 0 0 0 0 0 0 0 0 0 0 0 0 0 0 0 0 0 11 17 8 7
0 0 0 0 0 0 0 0 0 0 0 0 0 0 0 0 0 0 0 0 0 0 0 0 0 0 0 0 0 0 0 0 0 0 0 0 0 0 0 0 0 0 1 17 39 40 1 1 1
0 0 0 0 0 0 0 0 0 0 0 0 0 0 0 0 0 0 0 0 0 0 0 0 0 0 0 0 0 0 0 0 0 0 0 0 0 0 0 0 0 0 9 36 24 19 5 3 17
0 0 0 0 0 0 0 0 0 0 0 0 0 0 0 0 0 0 0 0 0 0 0 0 0 0 0 0 0 0 0 0 0 0 0 0 0 0 0 0 0 0 4 1 1 0 0 0 1
0 0 0 0 0 0 0 0 0 0 0 0 0 0 0 0 0 0 0 0 0 0 0 0 0 0 0 0 0 0 0 0 0 0 0 0 0 0 0 0 0 0 0 0 0 1 0 0 0

GFSSGP_con_mlcape_042.txt.gz
CAPE
0 0 0 0 0 0 0 0 10 225 267 220 142 221 339 439 281 117 392 395 367 576 552 546 442 416 425 457 555 597 565 573 509 469 417 404 462 534 643 434 315 192 19 9 9 1 0 0 0
0 0 0 0 0 0 0 0 7 324 228 39 33 145 180 165 433 383 410 512 484 508 595 610 503 477 626 643 669 685 671 601 561 530 442 427 529 424 210 176 57 5 0 0 0 0 0 0 0
0 0 0 0 0 0 0 8 305 162 24 12 0 12 6 39 446 349 508 631 486 639 732 761 597 572 664 723 656 745 705 629 601 487 448 498 332 188 199 51 0 0 0 0 0 0 0 0 0
0 0 0 0 0 0 0 372 415 63 25 0 0 0 34 188 41 164 715 612 714 801 852 696 660 625 839 734 798 761 657 601 491 476 489 237 190 211 32 0 0 0 0 0 0 0 0 0 0
0 0 0 0 0 0 15 363 175 81 14 0 0 9 45 365 396 446 883 679 764 833 951 889 755 708 834 890 882 748 620 543 510 492 214 183 201 6 0 0 0 0 0 0 0 0 0 0 0
0 0 0 0 1 3 239 308 165 108 10 0 0 51 206 498 676 748 801 876 894 923 913 860 826 906 915 917 745 617 569 609 485 200 149 160 12 0 0 0 0 0 0 0 0 0 0 0 0
0 0 0 0 20 103 394 325 105 47 38 26 102 97 360 544 659 573 794 715 1070 1166 1097 973 830 779 736 616 567 529 558 452 166 60 66 0 0 0 0 0 0 0 0 0 0 0 0 0 0
0 0 0 25 84 351 431 62 13 0 34 148 218 161 291 360 446 596 813 1004 1123 1018 725 498 457 486 466 509 477 437 345 113 22 28 6 0 0 0 0 0 0 0 0 0 0 0 0 0 0
0 0 8 178 272 151 269 58 24 27 68 98 87 400 773 493 631 828 757 812 729 523 415 315 299 297 226 187 353 173 108 29 16 18 8 41 100 100 56 0 6 0 0 0 0 0 0 0 0
0 0 3 87 253 67 6 61 25 26 40 97 182 742 794 710 687 677 636 515 200 61 66 116 104 92 66 0 88 132 30 125 296 279 322 328 424 354 209 90 0 0 0 0 0 0 0 0 0
0 0 0 0 121 28 5 94 140 95 195 209 226 739 770 770 634 623 263 5 0 0 0 0 26 66 24 25 25 2 121 302 476 609 637 643 580 654 534 428 173 36 0 0 0 0 0 0 0
0 0 0 0 58 0 127 145 260 254 97 167 247 941 836 574 484 104 0 0 0 0 0 0 0 36 33 0 52 203 299 457 532 688 825 791 750 865 841 481 81 16 2 0 0 0 0 0 0
0 0 0 4 0 5 68 158 232 93 179 343 789 852 477 259 19 0 0 0 0 0 1 2 0 0 14 124 247 353 453 565 779 818 994 878 845 649 325 139 56 8 0 0 0 0 0 0 0
0 0 0 1 10 0 34 153 243 92 290 495 780 446 99 10 0 0 0 0 1 42 72 147 119 83 111 142 199 134 88 255 513 737 361 144 132 191 166 42 0 0 0 0 0 0 0 0 0
0 0 0 0 0 0 15 45 0 47 278 405 374 232 21 0 0 0 0 0 1 114 288 325 311 166 93 57 1 0 0 5 78 183 85 72 153 115 3 0 0 0 0 0 0 0 0 0 0
0 0 0 0 0 0 0 0 0 116 277 359 276 121 29 0 0 0 0 0 0 79 382 369 160 78 23 0 0 0 0 0 1 19 24 0 0 0 0 0 0 0 0 0 0 0 0 0 0
0 0 0 0 0 0 0 0 0 171 223 334 278 159 57 31 0 28 94 66 25 201 420 302 178 27 0 0 0 0 0 0 0 0 0 0 0 0 0 0 0 0 0 0 0 0 0 0 0
0 0 0 0 0 0 0 0 0 156 235 235 256 220 140 95 51 147 268 273 210 450 502 360 291 0 0 0 0 0 0 0 0 0 0 0 0 0 0 0 0 0 0 0 0 0 0 0 0
0 0 0 0 0 0 0 0 0 169 288 225 229 209 163 117 137 290 442 422 398 332 329 276 1 0 9 18 0 0 0 0 0 0 0 0 0 0 0 0 0 0 0 0 0 0 0 0 0
0 3 3 0 0 6 9 19 0 16 256 317 302 270 260 239 403 415 553 605 527 449 506 306 428 366 89 15 0 0 0 0 0 0 0 0 0 0 0 0 0 0 0 0 0 0 0 0 0
6 37 5 20 0 2 9 22 4 0 13 46 141 270 289 449 510 542 585 703 662 619 617 438 202 23 0 0 0 0 0 0 0 0 0 0 0 0 0 0 0 0 0 0 0 0 0 0 0
34 0 0 0 0 20 0 21 50 12 0 7 52 140 313 295 157 86 7 58 121 118 41 0 0 0 0 0 0 0 4 6 0 0 0 0 0 0 0 0 0 0 0 0 0 0 1 2 7
52 0 2 0 4 1 0 0 35 1 18 0 5 167 164 40 0 0 0 0 0 0 0 0 0 0 0 0 0 0 0 0 0 0 0 0 0 0 0 0 0 0 0 8 15 24 29 28 30
3 36 23 7 2 0 0 0 0 6 4 5 0 91 58 0 0 0 0 0 0 0 0 0 0 0 0 0 0 0 0 0 0 0 0 0 0 0 0 1 0 9 22 28 31 37 19 15 15
36 11 0 0 0 0 0 0 0 0 0 13 11 36 0 0 0 0 0 0 0 0 0 0 0 0 0 0 0 0 0 0 0 0 0 0 0 0 3 5 13 10 11 30 36 15 7 6 9
1 0 0 0 0 0 0 0 24 0 0 0 8 4 0 0 0 0 0 0 0 0 0 0 0 0 0 0 0 0 0 0 0 0 0 0 0 1 0 7 11 7 14 30 13 6 11 16 12
0 0 0 0 0 0 0 0 0 0 0 0 11 0 0 0 0 0 0 0 0 0 0 0 0 0 0 0 0 0 0 0 0 0 0 0 0 0 0 0 0 0 3 17 15 14 14 16 12
0 0 0 0 0 0 0 0 0 0 0 0 0 0 0 0 0 0 0 0 0 0 0 0 0 0 0 0 0 0 0 0 0 0 0 0 0 0 0 0 0 0 0 9 17 4 16 28 15
0 0 0 0 0 0 0 0 0 0 0 0 0 0 0 0 0 0 0 0 0 0 0 0 0 0 0 0 0 0 0 0 0 0 0 0 0 0 0 0 0 0 5 19 17 21 16 7 5
0 0 0 0 0 0 0 0 0 0 0 0 0 0 0 0 0 0 0 0 0 0 0 0 0 0 0 0 0 0 0 0 0 0 0 0 0 0 0 0 0 4 16 19 20 5 2 8 8

GFSSGP_con_mlcape_045.txt.gz
CAPE
0 0 0 0 0 0 0 0 0 358 534 559 458 318 548 476 556 428 351 414 549 469 382 268 255 270 335 398 408 440 493 527 494 466 465 529 587 581 425 293 129 39 11 0 0 0 0 0 0
0 0 0 0 0 0 0 4 0 767 427 380 66 410 305 260 626 605 437 412 543 498 441 396 329 323 400 500 488 492 535 543 535 503 494 521 439 348 269 87 6 0 0 0 0 0 0 0 0
0 0 0 0 0 0 4 27 784 475 353 62 0 1 1 102 467 363 352 484 558 412 616 586 413 468 516 544 495 536 591 603 554 503 520 388 223 221 37 0 0 0 0 0 0 0 0 0 0
0 0 0 0 0 4 0 573 509 274 111 3 0 0 0 83 0 289 422 409 491 727 894 502 495 572 579 567 564 603 633 564 479 505 348 190 155 6 0 0 0 0 0 0 0 0 0 0 0
0 0 0 0 0 4 0 625 358 290 87 26 1 0 0 49 1 190 528 486 449 667 821 711 600 589 595 594 595 671 589 471 505 370 204 195 14 0 0 0 0 0 0 0 0 0 0 0 0
0 0 0 0 1 2 100 422 246 136 25 12 5 0 9 262 38 187 324 335 475 689 730 763 613 579 642 695 715 623 553 498 375 170 160 42 0 0 0 0 0 0 0 0 0 0 0 0 0
0 0 0 5 24 66 243 4 258 21 32 13 3 53 504 556 312 391 224 117 309 728 848 803 813 715 719 660 598 544 516 377 134 93 23 0 0 0 0 0 0 0 0 0 0 0 0 0 0
0 0 0 12 39 73 313 152 6 6 2 98 215 164 252 743 544 0 259 269 695 614 681 451 513 496 506 555 500 471 362 122 46 22 0 0 0 0 0 0 0 0 0 0 0 0 0 0 0
0 0 3 41 17 64 137 40 3 0 12 27 154 379 592 957 817 175 362 461 717 474 308 280 265 294 289 354 426 232 105 35 20 0 0 5 15 19 70 0 0 0 0 0 0 0 0 0 0
0 0 5 75 6 53 244 30 12 3 0 103 490 1117 1075 889 979 677 640 633 386 243 177 200 202 190 102 13 110 52 3 40 161 193 163 404 357 400 283 40 0 0 0 0 0 0 0 0 5
0 0 0 116 3 7 0 0 5 39 0 43 116 859 1210 1112 721 595 697 438 34 20 17 61 104 105 1 36 63 9 77 334 506 565 595 649 457 500 403 474 309 210 0 49 3 20 6 0 0
0 0 0 0 109 12 2 13 48 25 20 154 351 1113 990 861 801 786 242 0 0 0 0 0 45 80 38 2 8 152 241 392 480 689 823 732 778 843 678 438 260 137 109 94 56 21 0 0 0
0 0 0 20 0 0 9 31 91 25 34 63 996 900 858 753 641 30 0 0 0 0 0 0 0 27 211 264 398 473 538 616 806 824 1022 1083 921 853 728 432 222 113 27 21 4 0 0 0 0
0 0 0 2 4 6 9 45 99 100 127 388 713 597 378 239 0 0 0 0 32 32 72 31 71 168 404 548 540 449 429 560 683 916 700 547 561 482 513 410 133 20 0 0 0 0 0 0 0
0 0 0 0 43 54 52 78 47 149 162 321 337 240 63 0 0 0 0 55 195 228 247 320 367 352 410 148 26 25 33 42 148 338 391 352 443 462 201 37 0 0 0 0 0 0 0 0 0
0 0 0 0 36 29 2 19 17 146 201 193 148 14 0 0 0 0 0 0 295 468 533 482 395 446 215 17 0 0 0 0 11 88 71 4 0 0 0 0 0 0 0 0 0 0 0 0 0
0 0 0 0 19 17 1 0 15 143 243 279 161 58 0 0 0 6 11 0 72 543 725 580 537 398 3 0 0 0 0 0 0 0 0 0 0 0 0 0 0 0 0 0 0 0 0 0 0
0 0 0 3 1 2 0 0 18 161 197 334 289 179 101 74 92 205 218 146 104 464 816 707 516 154 0 0 0 0 0 0 0 0 0 0 0 0 0 0 0 0 0 0 0 0 0 0 0
0 0 1 0 0 0 0 0 0 116 165 250 378 344 272 293 278 386 444 411 326 649 837 572 265 5 183 321 0 0 0 0 0 0 0 0 0 0 0 0 0 0 0 0 0 0 0 0 0
0 1 0 0 0 6 2 17 3 151 184 176 268 372 421 401 424 561 722 719 810 819 693 511 342 390 527 268 30 0 0 0 0 0 0 0 0 0 0 0 0 0 0 0 0 0 0 0 0
8 0 4 28 3 0 53 73 90 86 216 308 306 306 360 426 629 790 912 918 675 509 541 530 570 261 82 0 0 0 0 0 0 0 0 0 0 0 0 0 0 0 0 0 0 0 0 0 1
28 43 35 33 25 7 13 12 6 86 140 210 316 412 452 579 841 929 982 967 812 820 585 516 38 0 0 0 0 0 0 0 3 3 0 0 0 0 0 0 0 0 0 0 2 5 12 14 16
19 34 69 56 7 1 9 3 33 168 97 108 247 380 540 688 682 585 556 518 351 239 11 0 0 0 0 0 0 0 2 4 0 0 0 1 1 0 0 0 0 0 3 5 8 19 27 34 15
96 107 102 66 33 81 33 62 38 128 123 103 177 330 516 400 246 19 10 0 0 0 0 0 0 0 0 0 0 0 0 0 1 5 3 1 1 0 1 2 3 5 8 5 5 10 14 26 20
97 108 93 74 47 31 72 28 0 42 39 44 171 282 341 205 2 0 0 0 0 0 0 0 0 0 0 3 1 0 0 0 0 0 0 0 0 0 0 0 1 4 3 1 3 9 23 28 14
114 70 45 9 13 22 59 0 94 48 36 43 184 245 267 113 0 0 0 0 0 0 0 0 1 4 8 5 0 0 0 0 0 0 0 0 0 0 0 4 0 0 0 0 3 14 33 36 21
103 6 56 37 9 0 0 18 87 8 13 9 194 251 214 29 0 0 0 0 0 0 0 0 3 1 1 0 0 0 0 0 0 0 0 0 0 0 0 0 0 0 0 0 3 15 32 41 17
8 25 4 0 0 0 1 0 15 0 0 0 120 224 179 3 0 0 0 0 0 0 6 5 1 2 0 0 0 0 0 0 0 0 0 0 0 0 0 0 0 0 0 0 5 14 28 19 9
11 0 0 0 0 0 0 1 0 0 0 0 15 178 122 1 0 0 0 1 1 3 0 2 0 0 0 0 0 0 0 0 0 0 0 0 0 0 0 0 0 0 0 3 16 13 13 27 14
0 0 0 0 0 0 0 0 0 0 0 0 0 42 31 0 0 1 7 3 1 0 0 0 0 0 0 0 0 0 0 0 0 0 0 0 0 0 0 0 0 0 1 13 7 7 16 15 13

GFSSGP_con_mlcape_051.txt.gz
CAPE
0 0 0 0 0 0 0 0 0 150 551 471 805 646 659 799 692 325 443 75 0 2 597 817 750 634 602 450 398 325 302 298 249 319 250 169 38 0 0 0 0 0 0 0 0 0 0 0 0
0 0 0 0 0 0 0 166 495 471 562 259 365 760 578 744 890 659 459 112 11 131 568 692 565 587 486 465 482 383 387 330 299 200 121 56 0 0 0 0 0 0 0 0 0 0 0 0 0
0 0 0 0 0 0 0 75 831 672 574 352 166 205 538 706 874 751 431 155 26 89 437 593 483 412 374 512 540 422 362 318 203 86 63 7 0 0 0 0 0 0 0 0 0 0 0 0 0
0 0 0 0 0 0 0 298 710 480 280 206 65 62 152 144 500 740 590 189 30 93 306 261 263 351 425 519 444 355 305 215 107 62 2 0 0 0 0 0 0 0 0 0 0 0 0 0 0
0 0 0 0 0 0 479 675 569 265 207 143 131 8 75 314 693 581 462 330 195 77 151 154 295 414 496 479 392 282 217 125 90 7 0 0 0 0 0 0 0 0 0 0 0 0 0 0 0
0 0 0 0 0 522 649 273 234 74 120 74 53 2 16 150 559 395 185 4 25 99 144 194 288 379 427 411 304 221 135 63 31 0 0 0 0 0 0 0 0 0 0 0 0 0 0 0 0
0 0 0 0 0 196 353 290 63 110 17 31 20 213 13 13 250 341 0 0 0 71 155 257 363 397 412 317 225 147 69 44 9 0 0 0 0 0 0 0 0 0 0 0 0 0 0 0 0
0 0 0 0 3 271 368 367 106 13 9 0 0 86 160 101 410 212 4 0 0 68 100 302 325 480 402 307 163 98 48 20 0 0 0 0 0 0 0 0 0 0 0 0 0 0 0 0 0
0 0 0 0 65 138 128 60 10 0 7 11 10 37 488 174 276 171 10 24 24 57 101 183 376 397 315 213 128 61 31 2 0 0 0 0 0 0 0 0 0 0 0 0 0 0 0 0 0
0 0 0 33 86 91 107 19 0 0 1 67 419 37 431 142 62 31 4 0 4 84 171 172 358 285 225 131 8 0 2 0 0 0 0 0 0 0 0 0 0 0 0 0 0 0 0 0 0
0 0 0 33 95 21 2 2 0 0 0 2 287 178 211 33 0 30 0 0 26 102 157 277 267 188 28 2 0 0 0 0 0 0 5 1 133 3 16 2 0 0 0 0 0 0 0 0 0
0 0 5 10 49 41 1 0 0 0 0 0 180 434 141 78 1 13 1 0 132 115 163 157 141 64 1 2 0 0 51 123 85 319 372 401 342 275 157 71 56 7 0 0 0 0 0 0 0
0 0 4 195 81 89 9 0 0 0 0 152 740 757 357 171 88 25 153 70 43 50 38 6 7 0 7 93 108 186 323 347 339 345 261 331 397 181 60 4 0 0 0 0 0 0 0 0 0
27 23 21 66 0 0 0 0 0 1 17 86 719 617 401 202 173 69 89 11 0 0 2 0 0 0 158 106 53 150 212 268 230 228 195 183 197 59 0 0 0 0 0 0 0 0 0 0 0
0 1 3 11 32 0 0 0 20 23 195 583 587 495 241 1 6 69 1 0 0 0 0 0 86 154 40 19 51 62 97 93 60 22 14 7 3 0 0 0 0 0 0 0 0 0 0 0 0
0 0 0 4 40 2 0 0 6 20 241 399 280 293 154 0 0 0 0 0 0 0 0 4 276 19 0 0 0 0 0 0 0 0 0 0 0 0 0 0 0 0 0 0 0 0 0 0 0
0 0 0 1 7 2 8 5 14 56 208 134 84 0 0 0 0 3 6 3 3 3 61 312 96 38 11 0 0 0 0 0 0 0 0 0 0 0 0 0 0 0 0 0 0 0 0 0 0
0 0 0 0 1 7 8 2 27 83 120 66 7 0 0 0 0 12 33 66 32 85 281 264 71 10 0 0 0 0 0 0 0 0 0 0 0 0 0 0 0 0 0 0 0 0 0 0 0
0 0 0 0 0 0 18 4 57 56 49 9 0 0 0 0 0 0 86 171 202 284 321 246 80 0 0 0 0 0 0 0 0 0 0 0 0 0 0 0 0 0 0 0 0 0 0 0 0
0 0 3 1 0 0 0 0 22 71 45 9 0 0 0 0 0 0 23 418 375 404 347 211 92 9 0 0 0 0 0 0 0 0 0 0 0 0 0 0 0 0 0 0 0 0 0 0 0
3 0 0 0 1 0 0 0 0 9 27 70 10 0 0 0 43 151 197 491 593 483 360 304 224 112 8 110 3 0 0 0 0 0 0 0 0 0 0 0 0 0 0 0 0 0 0 0 0
1 0 5 0 0 0 6 1 12 0 0 17 74 14 0 0 171 267 373 480 647 537 425 385 267 161 33 215 0 0 0 0 0 0 0 0 0 0 0 0 0 0 0 0 0 0 0 0 0
1 4 8 26 3 0 0 0 0 0 0 5 9 136 58 56 165 342 538 690 723 585 503 376 289 135 180 34 0 0 0 0 0 0 0 0 0 0 0 0 0 0 0 0 0 0 0 0 0
0 0 12 7 2 1 6 0 0 0 0 0 54 141 184 147 298 529 733 722 614 506 386 314 314 301 17 0 0 0 0 0 0 0 0 0 0 0 0 0 0 0 0 0 0 0 0 0 0
4 12 0 0 0 8 18 0 6 11 0 0 1 119 256 399 529 755 857 775 513 312 322 318 366 74 0 0 0 0 0 0 0 0 0 0 0 0 0 0 0 0 0 0 0 0 0 0 0
0 23 2 0 1 3 1 15 2 0 0 0 0 0 275 563 576 693 760 620 563 337 282 142 0 0 0 0 0 0 0 0 0 0 0 0 0 0 0 0 0 0 0 0 0 0 0 0 0
0 33 61 1 3 5 0 27 38 1 68 77 31 63 414 495 367 308 301 371 271 13 0 0 0 0 0 0 0 0 0 0 0 0 0 0 0 0 0 0 0 0 0 0 0 0 0 0 0
17 0 3 2 0 0 0 0 5 1 4 159 256 382 464 321 140 53 40 7 0 0 0 0 0 0 0 0 0 0 0 0 0 0 0 0 0 0 0 0 0 0 0 0 0 0 0 0 0
1 4 0 0 0 0 7 0 6 0 0 0 185 334 407 306 89 0 0 0 0 0 0 0 0 0 0 0 0 0 0 0 0 0 0 0 0 0 0 0 0 0 0 0 0 0 0 0 0
14 13 11 0 0 0 0 0 0 0 0 0 0 254 335 311 129 0 0 0 0 0 4 12 6 0 0 0 0 0 0 0 0 0 0 0 0 0 0 0 0 0 0 0 0 0 0 0 0

GFSSGP_con_mlcape_054.txt.gz
CAPE
0 0 0 0 0 0 0 0 0 0 125 807 966 768 671 884 595 246 253 103 344 744 844 630 513 400 422 277 342 336 332 358 256 182 35 0 0 0 0 0 0 0 0 0 0 0 0 0 0
0 0 0 0 0 0 0 2 682 575 703 463 540 972 886 960 800 630 279 201 632 743 838 702 579 544 365 375 396 341 396 335 220 106 10 0 0 0 0 0 0 0 0 0 0 0 0 0 0
0 0 0 0 0 0 0 3 725 654 611 413 353 458 689 729 851 833 340 109 765 740 779 676 487 415 428 407 396 425 334 231 131 53 5 0 0 0 0 0 0 0 0 0 0 0 0 0 0
0 0 0 0 0 0 0 0 446 580 426 293 221 292 374 708 895 859 352 273 598 776 720 613 447 401 452 418 410 365 224 137 72 36 8 0 0 6 0 0 0 0 0 0 0 0 0 0 0
0 0 0 0 0 18 358 374 371 392 268 255 111 86 317 836 709 575 384 292 482 609 546 347 321 466 445 363 368 234 145 89 51 31 4 5 11 7 0 0 0 0 0 0 0 0 0 0 0
0 0 0 0 0 16 375 222 245 195 150 99 59 83 160 620 536 197 258 192 63 67 70 95 175 294 355 393 290 172 133 66 20 7 0 1 0 0 0 0 0 0 0 0 0 0 0 0 0
0 0 0 0 0 0 108 158 177 133 22 33 3 0 95 475 349 51 34 9 9 37 75 93 160 199 395 335 212 136 77 20 4 0 0 0 0 0 0 0 0 0 0 0 0 0 0 0 0
0 0 0 0 0 15 337 214 48 66 33 14 98 115 0 292 122 19 22 40 26 8 6 35 152 295 326 261 138 57 31 1 0 0 0 0 0 0 0 0 0 0 0 0 0 0 0 0 0
0 0 0 0 0 30 279 20 10 11 12 11 34 370 181 333 17 2 2 7 2 12 0 10 96 199 311 176 87 46 17 0 0 0 0 0 0 0 0 0 0 0 0 0 0 0 0 0 0
0 0 0 0 78 46 57 1 1 2 0 198 295 384 347 170 5 6 2 13 12 7 33 98 143 288 242 157 63 25 0 0 0 0 0 0 0 0 0 0 0 0 0 0 0 0 0 0 0
0 0 0 9 28 66 8 0 0 0 0 178 257 174 183 118 49 5 11 50 13 11 21 114 239 233 133 32 0 0 0 0 0 0 0 0 0 0 0 0 0 0 0 0 0 0 0 0 0
0 0 0 7 18 16 11 0 0 0 0 258 137 88 57 98 26 0 0 3 19 78 111 212 218 115 49 0 0 0 0 0 0 0 1 3 43 1 3 5 0 0 0 0 0 0 0 0 0
0 0 3 22 52 10 0 0 0 0 1 154 15 91 64 35 0 0 7 19 32 95 162 243 146 16 0 0 0 0 18 58 238 270 271 192 108 26 0 0 0 0 0 0 0 0 0 0 0
1 138 116 103 76 30 0 0 0 17 10 266 237 119 69 41 24 2 8 3 71 72 133 216 95 1 36 21 21 59 188 243 163 114 138 81 0 0 0 0 0 0 0 0 0 0 0 0 0
3 38 48 2 5 0 0 6 35 52 28 215 415 142 121 66 37 20 35 22 66 35 39 49 76 37 42 28 96 153 153 67 21 1 0 0 0 0 0 0 0 0 0 0 0 0 0 0 0
0 0 0 47 9 0 0 9 35 137 255 481 495 374 395 151 21 138 162 99 50 44 30 57 54 75 50 67 59 74 29 0 0 0 0 0 0 0 0 0 0 0 0 0 0 0 0 0 0
0 0 0 0 0 0 0 21 22 59 187 348 553 300 269 264 127 172 101 20 29 36 32 97 53 38 2 0 0 0 0 0 0 0 0 0 0 0 0 0 0 0 0 0 0 0 0 0 0
0 0 0 0 20 15 42 27 15 78 205 190 343 284 0 2 20 47 0 1 2 0 46 47 40 3 0 0 0 0 0 0 0 0 0 0 0 0 0 0 0 0 0 0 0 0 0 0 0
0 0 0 0 0 4 9 0 0 123 166 31 97 71 0 0 0 0 0 0 0 18 13 92 75 0 0 0 0 0 0 0 0 0 0 0 0 0 0 0 0 0 0 0 0 0 0 0 0
1 0 0 0 0 0 0 5 4 100 115 7 0 0 0 0 0 1 1 2 32 121 109 96 87 1 0 0 0 0 0 0 0 0 0 0 0 0 0 0 0 0 0 0 0 0 0 0 0
0 0 0 0 0 0 0 0 0 3 71 30 0 0 0 0 0 21 52 48 129 212 206 143 68 3 0 0 0 0 0 0 0 0 0 0 0 0 0 0 0 0 0 0 0 0 0 0 0
0 0 0 0 0 0 0 0 0 0 43 12 0 0 0 0 0 59 159 209 229 268 207 169 95 44 0 0 0 0 0 0 0 0 0 0 0 0 0 0 0 0 0 0 0 0 0 0 0
1 0 0 0 0 0 0 0 0 0 0 0 0 0 0 0 0 26 269 321 275 248 217 169 124 95 19 0 0 0 0 0 0 0 0 0 0 0 0 0 0 0 0 0 0 0 0 0 0
0 1 0 0 0 0 2 0 0 0 0 0 0 0 0 0 0 109 365 473 458 387 314 312 255 151 55 17 11 0 0 0 0 0 0 0 0 0 0 0 0 0 0 0 0 0 0 0 0
1 15 7 1 0 0 1 0 0 0 0 0 0 3 0 0 36 229 509 551 552 542 482 378 246 172 25 11 6 0 0 0 0 0 0 0 0 0 0 0 0 0 0 0 0 0 0 0 0
0 11 0 0 0 0 1 0 5 0 1 0 0 0 52 30 147 393 543 627 646 611 434 370 279 88 2 0 0 0 0 0 0 0 0 0 0 0 0 0 0 0 0 0 0 0 0 0 0
0 0 7 7 0 1 0 1 1 2 47 51 1 0 0 220 340 481 581 590 599 447 258 196 124 78 0 0 0 0 0 0 0 0 0 0 0 0 0 0 0 0 0 0 0 0 0 0 0
0 0 0 1 0 0 0 0 0 1 0 7 13 13 72 403 487 620 706 622 293 109 58 27 5 0 0 0 0 0 0 0 0 0 0 0 0 0 0 0 0 0 0 0 0 0 0 0 0
0 0 0 0 0 0 0 0 0 1 0 0 42 31 219 377 390 423 473 451 370 152 0 0 0 0 0 0 0 0 0 0 0 0 0 0 0 0 0 0 0 0 0 0 0 0 0 0 0
4 0 0 0 0 0 0 0 0 0 1 0 46 218 289 261 132 124 154 185 122 1 0 0 0 0 0 0 0 0 0 0 0 0 0 0 0 0 0 0 0 0 0 0 0 0 0 0 0

GFSSGP_con_mlcape_057.txt.gz
CAPE
0 0 0 0 0 0 0 0 0 12 8 962 946 978 934 873 667 266 227 81 785 939 890 669 543 323 201 217 263 316 387 288 131 17 0 0 0 0 0 0 0 0 0 0 0 0 0 0 0
0 0 0 0 0 0 0 0 205 549 766 697 774 938 933 760 967 524 190 447 869 996 921 737 668 501 368 379 407 439 461 308 91 11 0 0 0 0 0 0 0 0 0 0 0 0 0 0 0
0 0 0 0 0 0 0 0 34 694 782 445 496 617 779 759 1015 555 457 545 740 990 786 781 580 454 467 515 416 476 392 197 68 12 3 1 0 0 26 14 2 0 0 0 0 0 0 0 0
0 0 0 0 0 0 0 19 312 459 385 204 168 390 500 747 943 813 625 662 719 894 936 689 370 316 410 526 536 379 267 121 70 42 23 31 21 34 28 0 0 0 0 0 0 0 0 0 0
0 0 0 0 0 0 306 397 496 471 281 160 49 220 415 728 746 375 711 712 724 820 844 420 216 294 469 533 479 242 176 124 110 55 46 61 40 32 1 0 0 0 0 0 0 0 0 0 0
0 0 0 0 0 0 345 407 464 380 217 22 198 148 397 530 684 478 488 555 630 470 380 216 124 191 296 402 373 223 154 124 102 46 38 45 30 1 0 0 0 0 0 0 0 0 0 0 0
0 0 0 0 0 0 215 345 339 298 137 38 0 5 279 465 432 339 319 267 179 97 15 31 79 95 140 187 276 171 94 96 54 24 37 13 0 0 0 0 0 0 0 0 0 0 0 0 0
0 0 0 0 0 0 446 423 202 94 53 3 143 2 86 351 241 241 130 37 10 7 21 38 13 35 118 242 225 96 65 53 21 5 2 0 0 0 0 0 0 0 0 0 0 0 0 0 0
0 0 0 0 0 11 462 167 44 4 60 250 308 209 139 170 65 10 0 1 1 22 1 1 0 62 149 235 122 48 30 12 0 0 0 0 0 0 0 0 0 0 0 0 0 0 0 0 0
0 0 0 0 9 58 294 125 22 18 50 299 431 325 236 87 59 24 2 2 1 2 1 0 33 20 222 210 141 67 35 2 0 0 0 0 0 0 0 0 0 0 0 0 0 0 0 0 0
0 0 0 0 67 133 135 55 0 9 1 235 379 306 156 67 43 57 39 4 0 0 16 89 44 129 215 151 73 28 1 1 0 0 0 0 2 1 0 0 0 0 0 0 0 0 0 0 0
0 0 0 0 62 108 62 27 6 3 9 314 324 346 111 69 53 64 47 7 0 32 29 63 130 193 137 40 18 6 0 0 0 0 0 0 0 0 0 0 0 0 0 0 0 0 0 0 0
0 9 0 2 60 63 10 0 0 43 417 429 215 253 126 103 45 44 47 23 47 45 31 53 178 194 50 0 0 0 0 0 0 8 11 68 1 9 3 0 0 0 0 0 0 0 0 0 0
95 90 77 115 134 91 0 0 0 0 221 352 134 154 154 115 21 0 0 59 84 89 118 169 208 82 3 0 0 0 4 108 224 256 184 93 7 0 0 0 0 0 0 0 0 0 0 0 0
170 127 82 108 92 35 27 3 61 53 345 236 121 134 127 78 22 20 16 13 38 118 174 265 205 65 19 0 3 31 147 193 121 96 56 0 0 0 0 0 0 0 0 0 0 0 0 0 0
85 51 23 35 32 1 0 9 181 122 416 366 239 195 113 71 48 10 23 0 15 96 108 176 81 25 10 4 11 67 143 57 16 0 0 0 0 0 0 0 0 0 0 0 0 0 0 0 0
0 0 0 0 26 12 0 38 141 105 442 518 313 242 180 105 85 0 45 2 55 71 106 228 103 17 22 9 24 75 33 0 0 0 0 0 0 0 0 0 0 0 0 0 0 0 0 0 0
0 0 0 0 1 7 32 39 27 213 430 489 428 378 334 212 164 33 159 64 136 55 79 65 68 10 14 7 2 0 0 0 0 0 0 0 0 0 0 0 0 0 0 0 0 0 0 0 0
4 0 0 0 0 0 2 49 9 140 249 316 542 358 398 268 271 100 209 134 20 2 14 0 7 0 2 0 0 0 0 0 0 0 0 0 0 0 0 0 0 0 0 0 0 0 0 0 0
0 0 0 0 0 0 0 0 0 6 164 260 261 420 246 172 226 115 145 9 0 32 7 6 12 4 0 0 0 0 0 0 0 0 0 0 0 0 0 0 0 0 0 0 0 0 0 0 0
0 0 0 0 0 0 0 0 0 0 68 97 106 288 117 2 8 29 41 12 10 31 4 10 17 1 0 0 0 0 0 0 0 0 0 0 0 0 0 0 0 0 0 0 0 0 0 0 0
0 0 0 0 0 0 0 0 0 0 22 43 22 60 73 0 0 0 4 5 14 40 23 21 27 6 0 0 0 0 0 0 0 0 0 0 0 0 0 0 0 0 0 0 0 0 0 0 0
0 0 0 0 0 0 0 0 0 0 0 15 0 0 0 0 0 0 0 5 8 33 29 11 7 0 0 0 0 0 0 0 0 0 0 0 0 0 0 0 0 0 0 0 0 0 0 0 0
0 0 0 0 0 0 0 0 0 0 0 0 0 0 0 0 0 0 0 0 7 8 12 0 9 44 10 0 0 0 0 0 0 0 0 0 0 0 0 0 0 0 0 0 0 0 0 0 0
0 0 0 0 0 0 0 0 0 0 0 0 0 0 0 0 0 0 94 130 107 48 52 33 55 108 39 0 0 0 0 0 0 0 0 0 0 0 0 0 0 0 0 0 0 0 0 0 0
0 0 0 0 0 0 0 0 0 0 1 0 0 0 0 0 0 0 107 273 238 247 164 103 171 230 92 60 26 0 0 0 0 0 0 0 0 0 0 0 0 0 0 0 0 0 0 0 0
0 0 0 0 0 0 0 0 0 3 14 3 0 0 0 0 0 1 122 294 373 399 302 192 247 178 57 49 0 0 0 0 0 0 0 0 0 0 0 0 0 0 0 0 0 0 0 0 0
0 0 0 0 0 0 0 0 0 2 28 0 0 0 0 20 43 87 238 336 414 462 412 256 192 159 24 0 0 0 0 0 0 0 0 0 0 0 0 0 0 0 0 0 0 0 0 0 0
8 1 0 0 0 0 0 0 0 0 1 0 0 0 4 72 211 304 338 349 436 415 351 274 104 28 0 0 0 0 0 0 0 0 0 0 0 0 0 0 0 0 0 0 0 0 0 0 0
0 0 0 0 0 0 0 0 0 0 0 0 0 0 6 171 344 506 522 489 471 479 239 80 19 0 0 0 0 0 0 0 0 0 0 0 0 0 0 0 0 0 0 0 0 0 0 0 0

GFSSGP_con_mlcape_060.txt.gz
CAPE
0 0 0 0 0 0 0 0 0 22 2 534 1124 1071 616 871 539 278 270 377 897 1116 809 627 468 482 433 442 444 370 299 177 73 29 0 0 0 0 0 0 0 0 0 0 24 166 117 0 0
0 0 0 0 0 0 0 0 0 263 580 546 710 757 338 301 846 371 175 970 1177 1129 838 687 617 580 590 560 480 348 200 60 38 20 0 0 6 9 0 0 0 0 0 0 0 9 77 9 130
0 0 0 0 0 0 0 0 0 96 653 554 621 556 614 594 712 447 438 1056 1147 1127 908 694 613 636 598 560 497 352 133 65 39 27 13 17 29 36 4 0 0 0 0 0 0 0 0 0 0
0 0 0 0 0 0 0 0 424 321 286 276 397 431 490 754 971 700 759 1083 1096 1078 805 687 524 447 593 686 512 255 139 62 53 66 54 43 76 34 14 1 2 0 0 0 0 0 0 0 0
0 0 0 0 0 0 0 355 511 540 328 272 123 241 454 729 635 802 706 921 1061 958 717 524 335 373 813 709 461 184 170 94 85 114 103 100 88 37 12 3 0 0 0 0 0 0 0 0 0
0 0 0 0 0 0 44 479 527 393 289 306 360 313 462 682 739 782 734 700 772 736 456 338 173 261 231 154 290 233 204 105 154 135 165 132 67 10 0 0 0 0 0 0 0 0 0 0 0
0 0 0 0 0 0 22 524 473 403 207 93 122 195 514 772 609 739 669 521 463 310 149 100 102 61 49 55 220 191 126 148 75 134 147 96 31 4 0 0 0 0 0 0 0 0 0 0 0
0 0 0 0 0 0 99 618 338 225 156 45 194 102 570 711 639 434 345 318 218 78 0 22 41 28 33 76 148 176 100 41 33 85 64 20 6 0 0 0 0 0 0 0 0 0 0 0 0
0 0 0 0 0 0 358 334 167 86 281 467 451 151 399 501 467 281 198 94 22 2 2 1 4 18 0 11 184 167 70 24 57 53 19 3 0 0 0 0 0 0 0 0 0 0 0 0 0
0 0 0 0 0 35 255 255 142 115 302 463 549 425 433 299 156 80 28 5 3 1 2 0 0 0 17 160 135 73 46 30 30 10 0 0 0 0 0 0 0 0 0 0 0 0 0 0 0
0 0 0 0 0 100 218 210 44 78 74 308 342 333 297 204 86 16 1 2 2 0 0 0 0 0 120 213 122 51 16 10 11 0 0 0 0 0 0 0 0 0 0 0 0 0 0 0 0
0 0 0 0 55 102 180 49 31 26 18 301 324 417 340 189 97 39 2 0 0 1 0 0 2 56 211 138 60 20 0 0 0 0 0 0 0 0 0 0 0 0 0 0 0 0 0 0 0
0 20 0 1 88 104 59 3 67 257 466 576 530 315 182 135 82 91 12 0 2 0 14 3 70 161 178 67 20 4 0 0 0 0 0 16 6 0 0 0 0 0 0 0 0 0 0 0 0
101 78 20 54 113 112 7 8 16 324 514 479 429 239 153 111 103 90 54 25 48 34 27 21 68 167 151 8 0 0 0 0 0 0 1 15 2 0 0 0 0 0 0 0 0 0 0 0 0
107 169 148 180 158 66 23 17 23 218 527 334 281 164 178 133 73 82 15 40 55 57 94 52 145 153 102 0 0 0 0 10 120 225 109 4 0 0 0 0 0 0 0 0 0 0 0 0 0
128 27 42 81 67 0 7 17 138 185 466 321 203 195 208 161 27 4 14 22 15 28 78 165 180 144 50 0 0 0 4 98 144 66 1 0 0 0 0 0 0 0 0 0 0 0 0 0 0
2 6 4 3 74 3 14 10 177 321 382 311 200 225 202 156 49 12 0 0 32 66 103 151 187 166 11 0 0 0 27 24 0 0 0 0 0 0 0 0 0 0 0 0 0 0 0 0 0
1 0 0 0 3 14 13 11 50 417 531 318 258 256 242 163 48 33 9 0 1 32 91 137 153 15 0 0 0 0 0 0 0 0 0 0 0 0 0 0 0 0 0 0 0 0 0 0 0
7 3 0 0 0 0 0 0 10 126 536 451 294 313 261 195 147 68 0 49 0 4 68 84 138 0 0 0 0 0 0 0 0 0 0 0 0 0 0 0 0 0 0 0 0 0 0 0 0
0 0 0 0 0 0 0 0 0 42 247 402 368 316 319 238 265 191 136 103 4 13 104 79 94 26 1 13 1 0 0 0 0 0 0 0 0 0 0 0 0 0 0 0 0 0 0 0 0
0 0 0 0 0 0 0 0 0 0 106 222 367 335 320 349 195 259 189 113 65 110 135 95 54 38 1 0 0 0 0 0 0 0 0 0 0 0 0 0 0 0 0 0 0 0 0 0 0
0 0 0 0 0 0 0 0 0 0 0 45 184 308 326 268 287 190 144 73 85 60 44 26 1 0 0 0 0 0 0 0 0 0 0 0 0 0 0 0 0 0 0 0 0 0 0 0 0
0 0 0 0 0 0 0 0 0 0 0 0 38 102 250 208 208 90 81 47 18 42 43 27 5 0 0 0 0 0 0 0 0 0 0 0 0 0 0 0 0 0 0 0 0 0 0 0 0
0 0 0 0 0 0 0 0 0 0 0 0 0 18 30 63 78 56 7 8 4 3 12 9 0 0 0 0 0 0 0 0 0 0 0 0 0 0 0 0 0 0 0 0 0 0 0 0 0
0 0 0 0 0 0 0 0 0 0 0 0 0 1 8 0 0 3 0 0 0 0 0 0 0 0 0 0 0 0 0 0 0 0 0 0 0 0 0 0 0 0 0 0 0 0 0 0 0
0 0 0 0 0 0 0 0 0 0 0 0 0 0 0 0 0 0 0 0 0 0 0 4 0 0 0 0 0 0 0 0 0 0 0 0 0 0 0 0 0 0 0 0 0 0 0 0 0
0 0 0 0 0 0 0 0 0 0 0 0 0 0 0 0 0 0 0 0 4 12 4 36 11 1 7 5 1 0 0 0 0 0 0 0 0 0 0 0 0 0 0 0 0 0 0 0 0
0 0 0 0 0 0 0 0 0 0 0 0 0 0 0 0 0 0 0 4 46 76 101 91 36 46 21 0 0 0 0 0 0 0 0 0 0 0 0 0 0 0 0 0 0 0 0 0 0
0 0 0 0 0 0 0 0 0 0 0 0 0 0 0 0 0 0 1 45 114 206 244 155 117 105 44 2 0 0 0 0 0 0 0 0 0 0 0 0 0 0 0 0 0 0 0 0 0
0 0 0 0 0 0 0 0 0 0 0 0 0 0 0 0 26 91 111 128 143 206 230 250 142 178 40 0 0 0 0 0 0 0 0 0 0 0 0 0 0 0 0 0 0 0 0 0 0

GFSSGP_con_mlcape_066.txt.gz
CAPE
0 0 0 0 0 0 0 0 0 0 428 247 163 157 791 1238 1107 739 1062 871 1154 995 430 624 762 874 857 802 717 566 508 270 44 0 0 0 0 0 0 0 0 40 71 50 161 297 174 0 0
0 0 0 0 0 0 3 0 0 92 293 1175 1091 380 202 654 1136 1054 906 1003 1230 970 372 368 700 776 754 697 614 499 299 65 0 2 0 0 0 0 0 29 219 350 331 130 168 335 55 0 0
0 0 0 0 0 0 3 0 0 426 919 1180 1134 992 592 842 1056 987 1144 1261 1203 870 314 409 566 670 692 654 463 338 85 14 20 35 12 6 4 10 19 151 318 513 360 225 340 298 0 0 0
0 0 0 0 0 0 0 0 175 934 1018 1070 1182 942 1002 1308 1463 1166 1105 1444 1196 1037 426 491 438 536 643 475 355 124 23 31 62 74 35 20 22 20 6 56 160 394 441 444 409 12 0 0 0
0 0 0 0 0 0 0 292 729 1010 1007 971 827 872 1182 1189 1644 1317 1024 953 954 741 600 544 495 541 603 487 272 38 39 67 80 78 62 63 47 23 4 7 81 162 362 276 16 0 0 0 0
0 0 0 1 0 0 0 549 824 1012 984 958 1118 1113 1115 1298 1444 1517 1187 735 605 118 531 743 393 499 520 366 153 66 66 95 120 106 102 120 81 62 25 25 24 31 28 0 0 0 0 0 0
0 0 0 0 1 5 54 894 819 947 847 832 934 942 1219 1222 1256 1309 1153 954 532 327 445 299 293 326 294 130 129 68 101 127 183 138 112 83 75 48 28 18 0 0 0 0 0 0 0 0 0
0 0 0 0 0 5 343 928 822 778 674 831 782 883 1074 1114 956 1028 761 715 669 475 275 62 1 2 0 5 129 211 127 178 162 76 30 34 36 39 0 1 0 0 0 0 0 0 0 0 0
0 0 1 0 0 1 367 659 767 610 963 975 1022 908 1140 997 791 676 481 361 276 165 7 2 1 11 3 0 23 230 217 183 149 63 15 2 1 4 12 25 6 0 0 0 0 0 0 0 0
0 0 3 0 0 0 100 457 700 787 841 886 1012 995 1214 933 700 602 376 131 100 5 4 4 9 1 6 1 8 165 204 114 66 17 13 11 17 14 13 13 0 0 0 0 0 0 0 0 0
0 0 0 0 0 0 58 468 659 499 430 606 933 932 1005 839 781 411 57 5 3 4 5 3 6 5 0 0 0 38 58 129 47 39 18 46 50 16 15 0 0 0 0 0 0 0 0 0 0
0 1 0 0 45 67 120 512 440 414 557 726 1061 948 841 374 340 228 41 5 2 2 2 9 5 0 0 0 6 59 167 144 63 32 47 59 33 32 18 0 0 0 0 0 0 0 0 0 0
0 33 113 47 124 313 358 257 143 814 1148 1147 1106 942 367 296 91 5 3 4 2 2 0 1 7 0 0 0 23 22 59 62 29 42 28 17 16 11 16 0 0 0 0 0 0 0 0 0 0
167 158 121 153 230 359 216 152 174 923 1152 1121 828 788 501 322 53 2 4 2 4 2 2 1 0 0 0 94 104 33 19 59 25 20 50 77 16 58 3 0 0 0 0 0 0 0 0 0 0
155 241 305 440 457 189 223 142 134 439 1028 1016 766 560 554 432 16 1 1 3 4 11 23 0 9 62 85 217 119 1 0 0 0 0 115 227 203 93 1 0 0 0 0 0 0 0 0 0 0
65 68 67 131 256 135 161 105 69 726 1000 835 702 647 448 228 172 96 77 46 38 0 0 0 56 163 288 318 84 0 0 2 16 98 290 389 328 47 0 0 0 0 0 0 0 0 0 0 0
11 44 32 43 100 80 79 38 201 930 907 884 769 529 434 197 197 146 166 40 13 0 0 5 200 365 473 317 82 32 26 30 162 399 414 372 287 29 0 0 0 0 0 0 0 0 0 0 0
2 0 0 15 12 32 54 63 45 579 897 779 826 432 324 254 187 221 241 77 1 3 74 144 249 381 413 466 174 27 15 31 408 528 508 217 105 2 0 0 0 0 0 0 0 0 0 0 0
1 0 7 15 0 8 54 49 40 205 704 539 774 513 386 302 224 194 161 263 63 61 102 164 239 390 510 439 106 13 41 186 436 507 489 208 51 0 0 0 0 0 0 0 0 0 0 0 0
0 0 0 1 0 1 49 31 2 32 477 565 526 619 462 387 367 185 158 210 246 252 257 250 364 586 597 320 72 10 23 78 302 357 224 66 0 0 0 0 0 0 0 0 0 0 0 0 0
0 1 0 0 0 17 14 31 18 22 300 639 636 540 612 641 498 398 212 217 228 217 285 359 516 546 583 324 107 69 213 280 277 156 92 22 0 0 0 0 0 0 0 0 0 0 0 0 0
0 0 0 0 0 33 0 20 14 39 48 180 491 726 609 662 610 483 420 312 311 242 195 390 548 593 612 413 196 56 83 156 233 235 128 0 0 0 0 0 0 0 0 0 0 0 0 0 0
0 0 0 0 0 10 3 9 40 18 49 31 100 342 701 636 663 439 439 424 392 312 321 244 387 528 655 645 449 293 246 336 429 189 22 0 0 0 0 0 0 0 0 0 0 0 0 0 0
0 0 0 0 0 1 2 4 32 35 29 39 33 19 219 686 736 718 557 440 453 600 570 466 362 386 533 697 624 558 502 551 170 42 0 0 0 0 0 0 0 0 0 0 0 0 0 0 0
0 0 1 0 0 4 0 0 1 0 1 4 29 86 38 75 670 844 808 857 525 609 745 674 600 467 631 619 562 603 608 591 121 11 0 0 0 0 0 0 0 0 0 0 0 0 0 0 0
0 0 11 0 0 0 0 0 0 0 0 1 21 67 1 61 112 524 906 924 954 633 707 696 650 629 610 461 505 458 245 207 92 8 0 0 0 0 0 0 0 0 0 0 0 0 0 0 0
1 0 0 0 0 0 0 0 0 0 0 0 0 5 69 4 68 216 520 820 835 839 664 720 659 663 674 511 511 294 132 6 9 3 0 0 0 0 0 0 0 0 0 0 0 0 0 0 0
1 0 0 0 0 0 0 0 0 0 0 0 0 0 26 100 13 12 94 340 482 612 706 712 682 560 573 602 376 260 190 107 40 3 0 0 0 0 0 0 0 0 0 0 0 0 0 0 0
0 0 0 4 0 0 0 0 0 0 0 0 0 0 0 30 190 104 42 42 139 333 473 544 603 544 535 559 475 316 178 40 8 3 1 0 0 0 0 0 0 0 0 0 0 0 0 0 0
1 9 6 0 0 0 0 0 0 0 0 0 0 0 0 55 160 365 337 255 242 281 376 432 509 520 538 623 564 120 13 2 0 0 0 0 0 0 0 0 0 0 0 0 0 0 0 0 0

GFSSGP_con_mlcape_069.txt.gz
CAPE
0 0 0 0 0 0 0 0 2 0 0 351 206 115 0 0 300 0 608 1530 1511 959 821 1295 1325 1241 1135 962 853 777 654 408 88 4 0 0 0 0 2 70 157 228 381 303 178 0 0 0 0
0 0 0 0 0 3 2 2 0 8 104 209 829 572 1 0 230 107 1227 1304 1691 1049 900 1354 1239 1231 1099 963 891 723 511 183 25 0 0 0 0 18 38 80 135 161 316 324 152 0 0 0 0
0 0 0 5 16 19 3 0 0 11 371 605 781 604 116 130 805 1022 1164 1443 1762 1036 731 1244 1178 1094 1016 930 782 565 258 50 13 10 5 5 39 67 158 253 367 253 313 383 54 0 0 0 0
0 0 0 0 3 2 0 18 224 355 440 712 701 355 1219 1241 1046 1092 1355 1564 1359 603 648 744 977 1010 923 748 560 289 67 36 45 47 30 72 85 272 425 583 551 417 443 380 5 0 0 0 0
0 0 0 16 10 6 32 85 548 696 476 563 776 420 773 124 1110 1417 1180 1461 975 405 673 616 839 910 778 596 332 87 67 77 74 67 84 104 103 167 232 444 552 565 523 175 6 0 0 0 0
0 0 0 14 5 18 3 283 537 746 779 909 710 831 1051 1525 1617 1564 1526 1578 944 385 520 579 647 717 661 412 123 79 111 115 104 118 107 107 95 113 160 272 367 310 151 8 0 0 0 0 0
0 2 20 11 10 42 32 528 508 645 680 793 790 763 1324 1584 1527 1819 1492 1307 788 374 337 149 273 372 272 113 93 104 131 148 174 175 154 100 64 77 77 114 158 93 14 1 0 0 0 0 0
0 0 3 11 8 25 108 124 782 708 762 815 971 883 933 1857 1441 1343 1274 1034 243 234 232 16 5 45 24 33 47 117 137 130 152 116 89 80 52 38 39 49 55 16 0 3 0 0 0 0 0
0 0 7 23 23 0 19 12 409 699 674 940 1061 1094 1659 1405 920 836 741 544 35 52 4 3 2 3 0 0 46 179 195 127 105 68 52 29 24 7 15 61 21 13 3 0 0 0 0 0 0
0 6 8 0 0 0 0 2 258 462 624 562 1084 1272 1418 1252 876 683 597 386 78 3 4 1 0 0 0 0 0 47 131 81 72 51 29 37 46 46 38 28 4 1 0 0 0 0 0 0 0
7 0 0 15 15 3 0 41 522 370 163 600 776 1426 1296 1099 692 259 233 117 4 4 3 5 1 0 2 8 38 30 52 37 114 95 63 45 122 113 76 18 0 0 0 0 0 0 0 0 0
0 16 19 11 9 87 48 440 309 382 721 778 1131 1238 1168 856 548 172 26 3 2 2 4 6 6 16 18 20 10 0 0 30 115 105 136 189 177 122 53 10 1 0 0 0 0 0 0 0 0
0 62 52 49 55 86 132 206 255 390 889 1154 1058 1036 905 620 408 18 4 3 1 3 4 8 6 12 4 10 0 0 54 86 115 134 164 197 187 201 82 49 2 0 0 0 0 0 0 0 0
104 73 72 61 61 105 136 144 213 916 859 1094 869 838 734 481 70 1 4 3 3 1 1 4 1 0 0 0 0 0 18 31 42 121 137 190 158 185 144 77 3 0 0 0 0 0 0 0 0
15 12 7 32 83 77 30 52 92 765 859 1067 815 684 584 356 13 3 4 2 3 2 7 0 2 0 0 0 12 77 96 32 29 35 137 175 110 181 129 48 0 0 0 0 0 0 0 0 0
0 20 7 6 44 53 10 52 1 703 974 890 875 580 374 21 21 4 8 2 5 0 0 0 0 0 1 32 79 121 47 61 23 19 111 178 352 363 175 16 0 0 0 0 0 0 0 0 0
10 8 24 55 26 29 12 32 3 526 817 765 741 524 327 131 101 112 58 26 33 2 0 0 0 21 71 141 133 25 36 15 7 61 302 521 520 362 172 51 11 0 0 0 0 0 0 0 0
3 25 10 6 22 18 39 45 13 256 641 689 599 510 307 188 170 158 102 27 0 0 0 8 81 172 267 250 150 19 23 23 30 182 373 546 565 380 176 81 6 0 0 0 0 0 0 0 0
0 22 35 42 22 0 2 48 18 220 536 540 694 461 331 206 167 176 113 48 4 0 0 7 134 224 260 250 109 13 0 15 72 360 488 568 488 343 243 36 0 0 0 0 0 0 0 0 0
0 7 32 38 3 0 19 37 2 113 379 386 488 550 260 273 176 202 214 38 13 9 64 82 111 260 315 218 96 4 0 4 65 513 555 523 421 255 142 1 0 0 0 0 0 0 0 0 0
0 16 31 5 7 2 2 7 4 16 294 338 298 324 280 279 248 191 148 246 79 109 159 169 194 194 351 289 148 33 21 25 95 446 386 366 352 260 124 4 0 0 0 0 0 0 0 0 0
11 11 0 0 0 0 9 5 4 9 28 262 248 335 390 395 282 329 157 190 288 291 306 348 328 329 479 412 237 67 30 42 116 316 342 208 235 121 3 0 0 0 0 0 0 0 0 0 0
4 0 0 0 3 9 23 0 9 0 10 30 178 352 312 384 424 360 397 198 226 296 341 428 412 516 520 647 425 209 133 149 267 396 380 324 84 1 0 0 0 0 0 0 0 0 0 0 0
0 0 0 3 16 53 30 10 30 14 0 14 50 126 314 336 353 321 323 407 349 473 468 391 454 562 578 672 699 543 374 287 278 502 434 265 28 1 0 0 0 0 0 0 0 0 0 0 0
0 5 45 22 59 47 43 1 12 2 0 0 3 58 58 217 460 483 287 282 363 462 601 630 548 503 623 774 856 878 786 693 624 671 364 191 1 0 0 0 0 0 0 0 0 0 0 0 0
0 11 55 24 50 67 0 0 34 0 0 0 0 21 120 145 146 570 667 529 400 419 697 897 778 687 566 767 1012 1116 1062 973 904 805 455 187 7 1 0 0 0 0 0 1 1 0 0 0 0
14 7 31 37 13 12 31 30 4 0 0 0 0 0 38 143 162 215 645 817 892 761 689 1149 1055 927 809 841 1166 1175 1179 1088 899 749 412 76 2 0 0 0 0 0 0 0 0 0 0 0 0
0 17 8 6 14 8 29 47 53 0 0 0 0 0 7 210 154 275 354 641 984 1110 1127 1117 1151 918 921 1009 1125 1065 1113 865 598 164 83 7 0 0 0 0 0 0 0 0 0 0 0 0 0
0 0 13 33 6 31 28 41 21 0 0 0 0 0 0 10 227 189 238 441 777 1080 1207 1300 1259 1142 917 975 1158 1061 950 605 450 213 64 2 0 0 0 0 0 0 0 0 0 0 0 0 0
18 5 20 16 15 11 12 19 4 0 1 0 0 0 0 8 79 325 352 268 330 582 871 1068 1215 1221 1053 895 1019 938 632 357 236 57 0 0 0 0 0 0 0 0 0 0 0 0 0 0 0

GFSSGP_con_mlcape_075.txt.gz
CAPE
0 0 0 0 0 0 0 0 0 0 60 89 31 70 19 202 218 115 31 90 257 217 7 277 1113 1249 1087 833 677 508 356 256 223 146 121 86 153 354 264 259 127 0 0 0 0 0 0 0 0
0 0 0 0 0 0 0 0 0 102 150 107 181 233 360 247 210 70 89 118 44 86 16 389 780 1023 1076 894 789 516 372 255 184 109 92 162 308 418 354 175 14 0 0 0 0 0 0 0 0
0 0 0 0 0 0 0 0 40 76 44 52 23 110 201 793 495 495 172 5 0 0 3 9 708 879 936 925 742 464 274 203 99 26 136 276 502 490 426 91 0 0 0 0 0 0 0 0 0
0 0 0 0 0 0 0 63 49 66 73 71 24 0 0 122 15 443 721 111 0 0 132 106 821 823 912 972 748 360 263 135 23 114 298 462 481 478 463 169 30 0 0 0 0 0 0 0 0
0 0 0 0 0 0 0 43 77 105 81 119 7 0 0 0 2 557 598 835 544 421 406 349 270 817 960 992 570 285 161 21 24 170 394 547 451 400 583 150 33 0 0 0 0 0 0 0 0
0 0 0 0 0 0 43 80 34 126 127 75 0 0 0 0 0 187 538 607 345 269 251 140 103 433 624 681 345 156 66 12 124 367 551 637 559 485 591 103 11 0 0 0 0 0 0 0 0
0 0 0 0 0 10 5 4 0 16 151 39 0 45 1 0 0 277 537 359 125 47 6 13 21 0 219 315 146 85 98 167 242 379 503 530 557 606 431 131 26 20 0 0 0 0 0 0 0
0 0 0 0 0 0 0 0 23 1 0 59 93 2 0 0 85 313 271 264 144 6 0 1 44 53 2 34 91 94 126 138 82 196 339 404 433 367 256 132 36 25 13 0 0 0 0 0 0
0 0 0 0 0 0 2 0 0 0 31 30 0 0 47 349 556 330 177 144 57 9 0 0 4 0 21 35 90 92 89 38 32 88 163 123 127 133 138 56 33 27 8 0 0 0 0 0 0
0 0 0 0 0 0 0 0 0 50 130 70 0 0 705 570 341 179 105 105 27 28 2 1 1 0 0 0 30 91 59 4 2 0 12 15 49 77 72 50 39 17 0 0 0 0 0 0 0
0 0 0 0 0 0 0 0 50 33 72 67 8 90 752 399 179 107 17 3 1 1 1 2 1 2 1 1 4 41 35 1 0 0 0 10 22 36 24 18 15 0 0 0 0 0 0 0 0
0 0 0 0 0 0 0 0 0 261 316 112 329 778 517 312 69 12 0 1 1 2 3 3 1 0 0 0 0 0 1 1 24 0 8 27 8 3 10 0 0 0 0 0 0 0 0 0 0
0 0 0 0 0 0 0 0 0 9 20 530 549 612 260 113 24 7 3 3 3 2 3 3 2 1 0 0 0 0 0 1 15 35 48 61 19 10 2 0 0 0 0 0 0 0 0 0 0
0 0 0 0 0 0 0 0 0 2 39 44 205 414 169 30 3 2 5 2 3 2 1 2 2 0 4 0 0 0 0 4 30 80 114 139 91 24 37 11 0 0 0 0 0 0 0 0 0
0 0 0 0 0 0 0 0 0 0 0 0 0 279 17 12 2 1 3 1 2 2 1 0 1 2 0 0 0 0 0 1 23 84 136 161 180 73 76 27 12 0 0 0 0 0 0 0 0
0 0 0 0 0 0 0 0 0 0 0 0 84 26 3 0 4 1 1 1 1 0 0 0 1 0 0 0 0 0 0 0 0 50 108 152 167 124 146 49 38 4 0 0 0 0 0 0 0
0 0 0 0 0 0 0 0 0 10 0 0 0 0 0 0 1 4 3 1 0 0 1 1 0 0 0 0 0 0 0 0 7 3 18 63 76 116 142 125 13 0 0 0 0 0 0 0 0
0 0 0 0 0 0 4 1 0 0 3 5 8 4 3 9 0 0 1 1 1 1 1 0 0 0 0 0 0 0 0 0 0 0 0 0 1 108 145 69 0 0 0 0 0 0 0 0 0
0 0 0 0 1 0 0 0 0 0 10 38 45 9 79 63 21 0 0 1 1 0 2 0 0 0 0 0 0 0 0 0 0 0 0 18 69 123 140 32 0 0 0 0 0 0 0 0 0
0 0 0 0 11 0 0 0 0 0 9 98 98 29 61 96 72 2 0 0 0 0 0 0 0 0 0 0 0 0 0 0 0 0 25 69 128 161 183 139 60 0 0 0 0 0 0 0 0
0 0 0 0 0 0 0 0 0 0 85 140 150 75 35 51 70 23 1 0 0 0 0 0 0 0 0 0 0 0 0 0 0 0 61 105 141 188 253 169 83 10 0 0 0 0 0 0 0
0 0 0 0 0 0 0 0 0 0 5 56 251 94 47 50 21 22 3 0 0 0 0 0 0 0 0 0 0 0 0 0 0 0 0 83 193 240 245 235 167 4 0 0 0 0 0 0 0
0 0 0 0 0 0 0 0 0 0 0 19 275 236 114 55 23 0 0 0 0 0 0 0 0 0 1 4 1 5 0 0 0 6 66 143 190 249 324 270 150 35 0 0 0 0 0 0 0
0 0 0 0 0 0 0 0 0 0 0 3 98 238 188 50 67 19 0 0 0 0 0 0 0 0 34 46 41 54 1 0 0 18 115 188 219 259 288 185 135 59 0 0 0 0 0 0 0
0 0 0 0 0 0 2 0 0 2 0 0 2 230 131 68 73 63 22 0 0 0 0 0 0 3 67 133 100 67 3 0 0 0 150 229 219 178 125 103 48 8 0 0 0 0 0 0 0
0 0 0 0 0 6 0 7 0 2 0 0 0 91 198 130 74 105 101 56 13 0 0 0 24 90 96 192 196 122 59 2 8 22 86 178 225 184 70 43 26 0 0 0 0 0 0 0 0
0 0 0 12 0 0 1 6 0 0 0 0 0 0 105 261 200 56 182 158 159 142 30 37 260 180 190 268 346 185 199 147 80 25 181 235 173 106 48 25 1 0 0 0 0 0 0 0 0
0 0 0 2 0 0 0 11 7 0 0 0 0 0 0 13 102 295 214 189 111 164 255 242 292 460 401 306 468 532 297 304 469 323 161 219 162 57 9 0 0 0 0 0 0 0 0 0 0
0 0 0 5 10 0 0 0 0 0 0 0 0 0 0 0 9 32 75 168 275 126 186 336 341 358 414 380 350 629 686 624 470 542 352 185 15 2 0 0 0 0 0 0 0 0 0 0 0
0 0 0 0 10 8 0 0 0 0 0 0 0 0 0 4 0 13 35 67 273 344 357 392 476 494 563 533 399 566 668 635 388 273 39 2 0 0 0 0 0 0 0 0 0 0 0 0 0

GFSSGP_con_mlcape_078.txt.gz
CAPE
0 0 0 0 0 0 0 0 0 0 36 74 48 89 82 170 190 164 74 206 503 326 709 1082 1193 1185 1130 905 621 438 391 187 138 182 258 465 466 520 228 15 0 0 0 0 0 0 0 1 16
0 0 0 0 0 0 0 0 0 4 20 61 100 202 360 394 508 259 75 281 434 321 404 1009 723 592 997 929 616 529 382 207 166 171 314 597 636 521 99 2 0 0 0 0 0 0 0 0 0
0 0 0 0 0 0 0 0 0 22 78 68 56 127 128 467 287 683 509 94 403 390 202 895 399 76 455 1065 712 616 364 217 140 236 613 722 638 342 27 4 0 0 0 0 0 0 0 0 0
0 0 0 0 0 0 0 0 0 96 129 93 44 23 0 39 8 192 699 150 100 34 113 671 517 490 681 859 633 542 287 173 113 331 706 770 574 193 38 1 0 0 0 0 0 0 0 0 0
0 0 0 0 0 0 0 0 55 165 156 129 24 17 1 18 0 251 819 121 60 137 57 56 486 482 595 863 698 452 289 235 215 509 714 794 506 77 28 0 0 0 0 0 0 0 0 0 0
0 0 0 0 0 0 0 26 87 136 129 43 0 13 8 0 0 281 593 559 587 312 51 39 126 108 372 721 503 334 157 278 312 629 721 716 486 35 8 1 0 0 0 0 0 0 0 0 0
0 0 0 0 0 0 0 2 25 80 28 0 5 0 0 0 4 194 380 212 300 238 56 5 31 5 3 548 315 40 123 299 273 546 645 674 381 21 0 0 0 0 0 0 0 0 0 0 0
0 0 0 0 0 0 0 3 46 9 3 5 17 0 0 0 181 295 195 152 68 30 6 58 1 0 0 32 137 165 341 375 369 472 508 588 232 9 0 0 0 0 0 0 0 0 0 0 0
0 0 0 0 0 0 0 0 1 1 70 32 6 0 0 247 475 397 193 96 70 26 8 6 0 0 7 4 76 97 256 271 244 300 343 414 140 2 0 0 0 0 0 0 0 0 0 0 0
0 0 0 0 0 0 0 0 3 53 27 18 0 0 423 499 405 299 172 85 59 33 1 3 0 0 0 13 1 20 154 198 113 104 14 15 5 0 0 0 0 0 0 0 0 0 0 0 0
0 0 0 0 0 0 0 0 24 41 234 116 52 96 615 316 214 164 64 15 2 0 1 2 2 2 2 2 0 29 61 37 16 25 0 4 11 0 0 0 0 0 0 0 0 0 0 0 0
0 0 0 0 0 0 0 1 90 322 254 177 245 697 427 148 49 46 4 1 1 1 1 2 2 3 3 4 0 0 27 26 34 61 37 29 6 0 0 0 0 0 0 0 0 0 0 0 0
0 0 0 0 0 0 0 3 91 121 585 138 170 160 65 85 20 7 8 2 2 1 1 0 0 1 3 0 0 0 0 0 0 1 14 13 0 0 0 0 0 0 0 0 0 0 0 0 0
0 0 0 0 0 0 0 5 5 86 268 1 0 0 22 20 0 11 3 2 3 2 2 2 1 1 0 0 0 0 0 0 0 32 3 4 0 0 0 0 0 0 0 0 0 0 0 0 0
0 0 0 0 0 0 0 0 0 0 0 0 1 142 8 0 0 2 3 3 1 3 2 2 2 0 0 0 0 0 0 5 30 43 4 0 0 2 0 0 0 0 0 0 0 0 0 0 0
0 0 0 0 0 0 0 0 0 0 3 1 2 34 0 0 0 0 1 3 2 2 2 2 3 2 0 0 0 0 0 10 31 63 84 36 6 23 1 0 0 0 0 0 0 0 0 0 0
0 0 0 0 0 0 0 0 0 0 24 24 16 18 0 0 2 0 2 1 2 1 2 1 1 0 0 0 0 0 12 15 9 39 75 109 82 68 52 4 0 0 0 0 0 0 0 0 0
0 0 0 0 0 0 0 0 0 0 6 13 6 4 0 0 0 1 1 1 2 1 0 1 1 0 0 0 0 0 0 0 0 2 44 53 82 87 109 56 0 0 0 0 0 0 0 0 0
0 0 0 0 0 0 0 0 0 0 5 7 33 9 0 0 0 0 1 1 1 1 0 0 0 0 0 0 0 0 0 0 0 0 0 0 0 49 38 22 0 0 0 0 0 0 0 0 0
0 0 0 0 0 0 0 0 0 0 14 15 27 5 0 0 0 0 0 0 0 1 0 0 0 0 0 0 0 0 0 0 0 0 0 0 0 0 28 0 0 0 0 0 0 0 0 0 0
0 0 0 0 0 0 0 0 0 0 0 15 30 7 4 3 0 0 0 0 0 0 0 0 0 0 0 0 0 0 0 0 0 0 0 0 0 5 11 4 7 1 0 0 0 0 0 0 0
0 0 0 0 0 0 0 0 0 0 0 11 54 29 23 20 0 0 0 0 0 0 0 0 0 0 0 0 0 0 0 0 0 0 0 0 0 1 12 26 39 33 4 0 0 0 0 0 0
0 0 0 0 0 0 0 0 0 0 1 30 92 118 21 28 5 0 0 0 0 0 0 0 0 0 0 0 0 0 0 0 0 0 0 0 19 41 58 53 28 34 5 0 0 0 0 0 0
0 0 0 0 0 0 0 0 0 0 0 1 88 142 38 21 19 0 0 0 0 0 0 0 0 0 0 0 0 0 0 0 0 0 0 0 14 48 77 83 46 52 8 0 0 0 0 0 0
0 0 0 0 0 0 0 0 0 0 0 0 16 76 74 44 30 5 0 0 0 0 0 0 0 0 0 0 0 0 0 0 0 0 0 0 0 15 63 109 119 82 26 0 0 0 0 0 0
0 0 0 0 0 0 0 0 0 0 0 0 0 53 39 36 52 16 9 0 0 0 0 0 0 0 0 0 0 6 0 0 0 0 0 4 20 38 73 117 124 14 3 0 0 0 0 0 0
0 0 0 0 2 0 0 0 0 0 0 0 0 12 47 34 46 46 6 0 0 0 0 0 0 0 0 0 5 71 59 18 5 0 0 4 67 65 73 93 13 4 1 0 0 0 0 0 0
0 0 0 1 4 0 0 0 0 0 0 0 0 0 39 32 29 33 60 30 0 0 0 0 0 0 0 0 5 59 99 46 12 0 0 0 53 85 76 11 0 0 0 0 0 0 0 0 0
0 0 1 0 0 0 0 0 0 0 0 0 0 0 0 32 33 16 19 75 63 0 0 0 0 0 0 20 31 118 90 107 58 0 0 3 5 3 1 1 0 0 0 0 0 0 0 0 0
0 0 0 0 0 0 0 0 0 0 0 0 0 0 0 0 2 33 62 36 89 85 37 9 0 4 73 119 77 113 186 156 132 91 28 0 4 10 0 0 0 0 0 0 0 0 0 0 0

GFSSGP_con_mlcape_081.txt.gz
CAPE
0 0 0 0 0 0 0 0 0 0 0 37 49 63 47 189 176 91 109 117 601 1004 1283 1439 1251 1121 1034 983 990 1135 1038 403 327 476 609 531 382 254 92 0 3 3 3 8 10 10 7 2 2
0 0 0 0 0 0 0 0 0 0 3 23 86 159 306 307 425 430 548 204 735 874 1012 1555 1068 796 653 729 790 1099 1144 1094 915 777 647 566 347 230 69 7 7 33 4 10 11 10 2 0 0
0 0 0 0 0 0 0 0 0 0 2 24 16 42 123 245 249 691 678 282 733 592 796 1345 1220 762 495 389 731 888 955 849 874 793 785 576 367 199 54 3 5 43 6 7 0 0 0 0 0
0 0 0 0 0 0 0 0 0 0 0 23 40 38 0 67 11 67 224 764 616 461 441 1000 900 424 190 87 279 825 942 657 597 747 778 557 291 124 26 3 0 12 1 0 0 0 0 0 0
0 0 0 0 0 0 0 0 0 0 29 97 54 28 7 42 4 491 798 851 38 223 184 306 712 394 236 370 683 715 551 705 805 510 766 497 210 79 31 0 0 0 0 0 0 0 0 0 0
0 0 0 0 0 0 0 0 8 23 68 83 31 65 68 4 18 399 521 473 18 21 16 154 399 370 314 644 544 587 538 614 641 715 763 374 167 60 1 0 0 0 0 0 0 0 0 0 0
0 0 0 0 0 0 0 0 4 31 55 26 51 49 0 0 261 354 361 346 333 264 82 39 42 18 66 244 260 174 122 433 724 724 593 263 111 47 0 0 0 0 0 0 0 0 0 0 0
0 0 0 0 0 0 0 0 6 35 11 46 22 0 0 22 311 299 293 201 235 162 7 0 0 9 13 2 159 40 75 647 449 585 430 157 98 3 0 0 0 0 0 0 0 0 0 0 0
0 0 0 0 0 0 0 0 0 0 23 22 34 0 0 424 359 266 216 129 90 66 15 17 4 4 3 1 0 49 152 451 492 486 306 117 69 0 0 0 0 0 0 0 0 0 0 0 0
0 0 0 0 0 0 0 0 0 1 11 4 0 0 101 473 353 266 233 117 66 37 23 6 0 0 1 1 6 4 60 388 417 343 222 77 17 0 0 0 0 0 0 0 0 0 0 0 0
0 0 0 0 0 0 0 0 0 0 0 54 9 0 437 286 216 171 113 101 18 1 1 0 0 0 0 0 0 12 31 40 238 212 124 33 3 0 0 0 0 0 0 0 0 0 0 0 0
0 0 0 0 0 0 0 0 3 0 22 71 10 75 415 136 60 16 0 6 3 1 1 1 4 1 1 1 0 0 22 58 87 123 87 40 0 0 0 0 0 0 0 0 0 0 0 0 0
0 0 0 0 0 0 0 0 0 0 124 307 401 546 242 16 14 0 0 1 1 0 1 3 3 2 1 1 0 0 0 11 62 98 91 77 9 0 0 0 0 0 0 0 0 0 0 0 0
0 0 0 0 0 0 0 0 0 0 274 28 0 0 52 9 0 0 1 1 2 1 0 0 4 3 0 0 1 1 13 45 103 84 84 53 2 0 0 0 0 0 0 0 0 0 0 0 0
0 0 0 0 0 0 0 0 0 0 68 38 5 2 9 0 0 0 0 0 2 1 0 0 0 4 0 0 0 2 0 0 1 26 18 47 1 0 0 0 0 0 0 0 0 0 0 0 0
0 0 0 0 0 0 0 0 0 0 0 0 7 30 4 0 0 3 0 1 2 2 1 2 1 0 0 0 0 0 0 20 12 5 17 32 2 0 0 0 0 0 0 0 0 0 0 0 0
0 0 0 0 0 0 0 0 0 0 0 0 14 10 0 0 1 2 1 1 1 2 2 1 1 1 0 0 0 0 0 0 28 21 17 7 0 0 0 0 0 0 0 0 0 0 0 0 0
0 0 0 0 0 0 0 0 0 0 0 0 1 8 0 0 0 4 2 1 2 1 1 1 1 0 0 0 0 0 6 11 27 15 6 0 0 0 0 0 0 0 0 0 0 0 0 0 0
0 0 0 0 0 0 0 0 0 0 0 0 0 0 0 0 0 1 1 1 0 1 0 1 0 0 0 0 11 20 19 12 0 26 42 47 23 38 24 0 0 0 0 0 0 0 0 0 0
0 0 0 0 0 0 0 0 0 0 0 0 0 0 0 0 0 0 0 1 2 1 0 1 1 0 0 0 0 3 0 0 0 0 3 7 37 80 46 40 4 0 1 0 0 0 0 0 0
0 0 0 0 0 0 0 0 0 0 0 0 0 0 0 0 0 0 1 0 1 1 0 0 0 0 0 0 0 0 0 0 0 0 0 0 0 10 13 19 16 11 4 0 0 0 0 0 0
0 0 0 0 0 0 0 0 0 0 0 0 0 0 0 0 0 0 0 0 0 0 2 0 0 0 0 0 0 0 0 0 0 0 0 0 0 0 0 7 3 2 0 0 0 0 0 0 0
0 0 0 0 0 0 0 0 0 0 0 0 0 0 0 0 0 0 0 0 0 1 1 0 0 0 0 0 0 0 0 0 0 0 0 0 0 0 0 9 16 20 0 0 0 0 0 0 0
0 0 0 0 0 0 0 0 0 0 0 0 0 0 0 0 0 0 0 0 0 0 0 0 0 0 0 0 0 0 0 0 0 0 0 0 0 0 0 1 44 48 33 20 1 0 0 0 0
0 0 0 0 0 0 0 0 0 0 0 0 2 0 0 0 0 0 0 0 0 0 0 0 0 0 0 0 0 0 0 0 0 0 0 0 0 0 5 40 68 36 33 7 0 0 0 0 0
0 0 0 0 0 0 0 0 0 0 0 0 0 0 7 0 0 0 0 0 0 0 0 0 0 0 0 0 0 0 0 0 0 0 0 0 0 0 4 20 58 50 20 0 0 0 0 0 0
0 0 0 0 0 0 0 0 0 0 0 0 0 0 0 6 4 20 21 1 0 0 0 0 0 0 0 0 0 0 0 0 0 0 0 0 0 0 0 2 6 2 3 0 0 0 0 0 0
0 0 0 0 0 0 0 0 0 0 0 0 0 0 0 0 5 5 5 9 0 0 0 0 0 0 0 0 0 0 0 0 0 0 0 0 0 0 2 9 3 0 0 0 0 0 0 0 0
0 0 0 0 0 0 0 0 0 0 0 0 0 0 0 0 0 7 26 0 1 0 0 0 0 0 0 0 0 0 0 1 21 19 0 0 0 0 0 0 0 1 0 0 0 0 0 0 0
0 0 0 0 0 0 0 0 0 0 0 0 0 0 0 2 3 6 23 3 0 0 0 0 0 0 0 0 0 0 0 0 12 17 0 0 0 0 0 4 0 0 0 0 0 0 0 0 0

GFSSGP_con_mlcape_084.txt.gz
CAPE
0 0 0 0 0 0 0 0 0 0 0 0 2 26 14 75 88 15 101 140 727 1457 1634 1235 1303 1359 1028 1261 1433 1389 1350 1132 960 823 774 825 674 412 117 106 75 34 1 2 2 0 0 0 0
0 0 0 0 0 0 0 0 0 0 0 0 0 18 85 150 330 257 469 107 384 1311 1592 1422 1244 1266 1182 911 1313 1342 1303 1198 906 767 706 634 559 189 212 177 88 50 27 8 7 10 6 0 0
0 0 0 0 0 0 0 0 0 0 0 0 0 3 66 201 281 384 323 406 423 1118 1237 1479 1417 1436 1313 880 1087 1276 1206 1079 923 613 392 456 321 166 263 177 91 63 49 50 14 8 1 0 0
0 0 0 0 0 0 0 0 0 0 0 0 0 0 0 43 2 3 23 312 518 655 443 1079 1275 1472 1473 1197 935 856 798 617 555 520 395 364 248 229 261 189 121 122 21 0 1 4 0 0 0
0 0 0 0 0 0 0 0 0 0 0 5 9 0 0 5 2 214 578 535 655 391 270 173 619 873 1280 1401 1292 1058 855 765 782 622 463 380 243 169 216 102 57 4 0 0 0 0 0 0 0
0 0 0 0 0 0 0 0 0 0 0 14 20 0 0 0 9 135 276 509 228 245 171 98 257 347 558 894 1159 1008 891 871 932 471 334 274 135 90 120 85 5 0 0 0 0 0 0 0 0
0 0 0 0 0 0 0 0 0 0 0 2 22 8 0 0 80 396 334 380 60 85 50 32 113 176 271 221 245 866 875 779 901 528 242 137 78 61 71 18 0 0 0 0 0 0 0 0 0
0 0 0 0 0 0 0 0 0 0 0 16 12 7 0 0 339 420 277 276 398 108 97 19 19 32 91 51 161 199 415 477 734 385 172 23 72 47 0 0 0 0 0 0 0 0 0 0 0
0 0 0 0 0 0 0 0 0 0 0 5 53 29 0 213 271 200 155 128 186 127 49 15 3 0 14 19 32 84 121 277 411 336 95 33 59 0 0 0 0 0 0 0 0 0 0 0 0
0 0 0 0 0 0 0 0 0 0 0 3 15 3 0 393 275 106 57 99 119 44 13 13 0 0 0 0 4 18 5 38 127 248 126 33 22 0 0 0 0 0 0 0 0 0 0 0 0
0 0 0 0 0 0 0 0 0 0 0 0 9 7 9 296 152 54 28 43 15 8 2 1 0 0 0 0 0 9 11 11 159 192 81 15 0 0 0 0 0 0 0 0 0 0 0 0 0
0 0 0 0 0 0 0 0 0 0 0 36 7 2 308 167 48 11 2 1 23 11 3 0 1 0 0 2 1 3 7 41 76 86 57 14 0 0 0 0 0 0 0 0 0 0 0 0 0
0 0 0 0 0 0 0 0 0 0 6 322 373 458 219 101 52 0 0 0 10 19 4 2 1 1 1 0 1 1 25 57 55 133 71 23 0 0 0 0 0 0 0 0 0 0 0 0 0
0 0 0 0 0 0 0 0 0 0 30 144 77 56 88 70 24 1 1 0 1 0 2 1 1 1 0 0 0 0 0 19 46 91 83 21 3 0 0 0 0 0 0 0 0 0 0 0 0
0 0 0 0 0 0 0 0 0 0 12 22 0 5 14 31 12 0 0 1 1 1 0 2 2 0 0 1 0 0 6 0 29 65 65 23 9 7 0 0 0 0 0 0 0 0 0 0 0
0 0 0 0 0 0 0 0 0 0 0 0 29 22 10 3 0 1 0 2 0 0 1 1 3 2 0 3 3 4 4 10 38 40 40 55 15 0 0 0 0 0 0 0 0 0 0 0 0
0 0 0 0 0 0 0 0 0 0 0 0 0 0 0 0 0 0 1 0 0 1 2 0 0 2 0 2 2 0 4 13 27 35 18 23 11 11 0 0 0 0 0 0 0 0 0 0 0
0 0 0 0 0 0 0 0 0 0 0 0 0 0 0 0 0 2 1 1 1 1 1 1 0 0 0 0 0 0 3 37 31 14 33 32 31 4 0 0 0 0 0 0 0 0 0 0 0
0 0 0 0 0 0 0 0 0 0 0 0 0 0 0 0 0 1 0 1 1 1 1 0 0 2 0 0 0 0 0 0 0 0 12 36 14 1 0 0 0 0 0 0 0 0 0 0 0
0 0 0 0 0 0 0 0 0 0 0 0 0 0 0 0 0 1 1 1 1 0 1 1 0 0 0 0 0 6 0 10 16 24 17 39 30 14 1 0 0 0 0 0 0 0 0 0 0
0 0 0 0 0 0 0 0 0 0 0 0 0 0 0 0 0 0 1 0 1 0 0 0 0 0 0 0 2 0 4 12 36 31 9 37 47 56 62 53 39 8 0 0 0 0 0 0 0
0 0 0 0 0 0 0 0 0 0 0 0 0 0 0 0 0 0 0 0 0 0 0 0 0 0 0 0 0 0 0 2 1 0 2 7 17 41 50 47 47 30 0 0 0 0 0 0 0
0 0 0 0 0 0 0 0 0 0 0 0 0 0 0 0 0 0 0 0 0 0 0 0 0 0 0 0 0 0 0 0 0 0 0 0 0 0 0 0 0 0 0 0 0 0 0 0 0
0 0 0 0 0 0 0 0 0 0 0 0 0 0 0 0 0 0 0 0 0 1 0 0 0 0 0 0 0 0 0 0 0 0 0 0 0 0 0 0 0 0 0 0 0 0 0 0 0
0 0 0 0 0 0 0 0 0 0 0 0 0 0 0 0 0 0 0 0 0 0 0 1 1 0 0 0 0 0 0 0 0 0 0 0 0 0 0 0 0 0 1 11 5 3 0 0 0
0 0 0 0 0 0 0 0 0 0 0 0 0 0 0 0 0 0 0 0 0 0 0 0 0 0 0 0 0 0 0 0 0 0 0 0 0 0 0 0 0 1 19 37 40 16 0 0 0
0 0 0 0 0 0 0 0 0 0 0 0 0 0 0 0 0 0 0 0 0 0 0 0 0 0 0 0 0 0 0 0 0 0 0 0 0 0 0 0 0 0 3 2 0 0 0 0 0
0 0 0 0 0 0 0 0 0 0 0 0 0 0 0 0 0 0 0 0 0 0 0 0 0 0 0 0 0 0 0 0 0 0 0 0 0 0 0 0 0 2 1 3 2 1 0 0 0
0 0 0 0 0 0 0 0 0 0 0 0 0 0 0 0 0 0 0 0 0 0 0 0 0 0 0 0 0 0 0 0 0 0 0 0 0 0 0 0 0 0 1 0 0 0 0 0 0
0 0 0 0 0 0 0 0 0 0 0 0 0 0 0 0 0 0 0 0 0 0 0 0 0 0 0 0 0 0 0 0 0 0 0 0 0 0 0 0 0 1 12 1 0 0 0 0 0

GFSSGP_con_mlcape_087.txt.gz
CAPE
0 0 0 0 0 0 0 0 0 0 0 0 0 0 4 21 17 2 43 209 832 1444 1568 1411 1376 1310 1425 1714 1742 1528 1441 1378 1210 991 1061 697 793 741 504 309 164 20 4 5 6 10 14 20 16
0 0 0 0 0 0 0 0 0 0 0 0 0 5 31 14 147 202 335 220 357 1523 1646 1510 1211 1075 1525 1712 1798 1729 1662 1422 1246 1229 1124 857 593 419 253 183 96 4 3 3 6 7 4 5 4
0 0 0 0 0 0 0 0 0 0 0 0 0 0 0 79 245 156 309 161 179 1070 1574 1558 1291 1024 1301 1619 1842 1814 1706 1505 1339 1203 931 610 432 392 306 262 75 19 6 12 5 0 0 1 0
0 0 0 0 0 0 0 0 0 0 0 0 0 0 0 0 0 2 129 522 359 746 875 903 1047 903 1253 1646 1810 1780 1609 1433 1300 1176 829 521 410 413 281 198 62 9 3 74 6 0 0 0 0
0 0 0 0 0 0 0 0 0 0 0 0 0 0 0 0 0 2 320 522 465 664 720 670 566 527 700 1556 1710 1640 1488 1258 1064 978 658 506 482 347 226 102 138 97 51 26 2 0 0 0 0
0 0 0 0 0 0 0 0 0 0 0 0 0 4 2 3 2 44 419 298 443 464 340 185 391 296 359 488 1292 1407 1315 1086 838 737 538 504 429 246 196 161 61 0 29 24 0 0 0 0 0
0 0 0 0 0 0 0 0 0 0 0 0 3 3 19 15 20 460 519 382 430 139 262 189 176 118 4 225 366 668 1036 867 763 560 443 417 254 185 158 28 0 0 43 0 0 0 0 0 0
0 0 0 0 0 0 0 0 0 0 0 0 15 5 2 0 388 486 328 231 419 106 104 152 159 213 58 172 137 205 360 831 628 422 342 233 205 141 50 0 0 0 79 0 0 0 0 0 0
0 0 0 0 0 0 0 0 0 0 0 0 1 4 0 212 372 267 214 179 167 152 84 45 58 117 185 53 112 135 336 470 493 356 160 92 155 84 0 0 0 21 31 0 0 0 0 0 0
0 0 0 0 0 0 0 0 0 0 0 0 0 1 7 273 216 151 117 98 108 110 51 2 1 2 5 103 84 126 212 362 291 225 126 105 97 16 0 0 0 0 6 0 0 0 0 0 0
0 0 0 0 0 0 0 0 0 0 0 0 0 0 1 111 147 77 17 35 50 45 17 2 2 0 4 2 39 170 87 230 176 153 119 56 8 0 0 0 0 0 0 0 0 0 0 0 0
0 0 0 0 0 0 0 0 0 0 0 0 0 0 10 78 100 29 0 1 18 22 39 6 0 0 0 0 0 38 56 86 106 72 74 9 0 0 0 0 0 0 0 11 7 0 0 0 0
0 0 0 0 0 0 0 0 0 0 0 0 0 26 142 98 48 1 0 0 4 10 2 1 0 0 0 0 2 3 11 42 70 62 56 0 0 0 0 0 0 0 0 0 0 0 0 0 0
0 0 0 0 0 0 0 0 0 0 0 6 93 187 102 52 19 1 1 0 0 0 11 1 1 0 0 1 4 14 10 48 24 32 2 0 0 0 0 0 0 0 0 0 0 0 0 0 0
0 0 0 0 0 0 0 0 0 0 0 0 21 2 10 11 10 0 1 0 0 1 1 1 0 0 0 0 1 4 28 10 0 11 34 0 0 0 0 0 0 0 0 0 0 0 0 0 0
0 0 0 0 0 0 0 0 0 0 0 0 0 0 0 0 0 0 0 0 1 1 1 2 1 0 0 0 1 2 2 2 12 9 26 17 4 0 0 0 0 0 0 0 0 0 0 0 0
0 0 0 0 0 0 0 0 0 0 0 0 0 0 0 0 1 1 0 1 2 2 1 1 2 0 0 0 2 2 0 9 1 19 52 38 15 0 0 0 0 0 0 0 0 0 0 0 0
0 0 0 0 0 0 0 0 0 0 0 0 0 0 0 0 0 2 2 1 2 2 0 1 2 0 0 0 0 0 1 0 3 2 58 81 58 14 0 1 0 0 0 0 0 0 0 0 0
0 0 0 0 0 0 0 0 0 0 0 0 0 0 0 0 0 4 1 2 2 3 1 0 1 0 0 0 1 0 1 5 0 0 31 52 38 27 11 0 0 0 0 0 0 0 0 0 0
0 0 0 0 0 0 0 0 0 0 0 0 0 0 0 0 0 0 0 2 1 2 1 1 1 0 0 0 0 0 0 6 9 18 11 20 20 18 12 1 0 0 0 0 0 0 0 0 0
0 0 0 0 0 0 0 0 0 0 0 0 0 0 0 0 0 0 1 3 2 1 1 1 1 1 0 0 0 0 0 4 7 0 7 21 18 5 1 1 3 4 2 0 0 0 0 0 0
0 0 0 0 0 0 0 0 0 0 0 0 0 0 0 0 0 0 1 0 4 0 1 1 1 1 1 0 0 0 0 0 0 0 2 6 2 15 6 4 9 2 6 6 0 0 0 0 0
0 0 0 0 0 0 0 0 0 0 0 0 0 0 0 0 0 0 0 0 1 1 0 1 0 0 0 1 0 0 0 0 0 0 0 1 21 13 24 34 46 48 30 13 13 0 0 0 0
0 0 0 0 0 0 0 0 0 0 0 0 0 0 0 0 0 0 0 0 0 0 0 0 0 0 0 0 0 0 0 0 0 0 0 0 5 16 22 53 52 47 37 29 27 26 18 2 0
0 0 0 0 0 0 0 0 0 0 0 0 0 0 0 0 0 0 0 0 0 1 1 0 0 2 0 0 0 0 0 0 0 0 0 0 0 0 0 0 6 8 4 3 16 46 27 0 0
0 0 0 0 0 0 0 0 0 0 0 0 0 0 0 0 0 0 0 0 0 0 0 1 0 2 1 0 0 0 0 0 0 0 0 0 0 0 0 0 0 0 0 0 0 23 16 0 0
0 0 0 0 0 0 0 0 0 0 0 0 0 0 0 0 0 0 0 0 0 0 0 0 0 0 1 1 0 0 0 0 0 0 0 0 0 0 0 0 0 0 0 0 11 34 30 20 9
0 0 0 0 0 0 0 0 0 0 0 0 0 0 0 0 0 0 0 0 0 0 0 0 0 0 0 0 0 0 0 0 0 0 0 0 0 0 0 0 0 0 0 3 34 17 10 13 2
0 0 0 0 0 0 0 0 0 0 0 0 0 0 0 0 0 0 1 3 0 0 0 0 0 0 0 0 0 0 0 0 0 0 0 0 0 0 0 0 0 0 0 0 10 27 32 0 1
0 0 0 0 0 0 0 0 0 0 0 0 0 0 0 0 0 0 3 0 0 0 0 0 0 0 0 0 0 0 0 0 0 0 0 0 0 0 0 0 0 0 0 0 1 14 0 0 1

GFSSGP_con_mlcape_093.txt.gz
CAPE
0 0 0 0 0 0 0 0 0 0 0 0 0 0 0 0 0 1 265 397 761 972 1591 1528 1239 1351 1747 1792 1439 1539 1607 1607 1466 1182 1119 1162 1128 1005 1017 845 704 553 279 44 0 5 3 1 0
0 0 0 0 0 0 0 0 0 0 0 0 0 0 0 0 7 10 151 1004 667 764 1621 1870 1375 1319 1564 1643 1549 1507 1623 1577 1457 1247 1248 1328 1094 1116 1113 863 583 293 126 45 10 10 14 2 0
0 0 0 0 0 0 0 0 0 0 0 0 0 0 0 0 12 27 748 629 604 761 1251 1949 1487 1180 1200 1290 1390 912 1277 1248 1387 1308 1351 1409 1326 1227 1000 649 354 144 82 84 41 23 15 0 0
0 0 0 0 0 0 0 0 0 0 0 0 0 0 2 0 23 171 492 613 689 619 875 1630 1394 1306 1160 1053 1079 1281 1140 799 1316 1260 1340 1457 1303 1103 739 327 130 121 48 25 26 14 2 0 0
0 0 0 0 0 0 0 0 0 0 0 0 0 0 1 27 65 187 347 747 953 975 800 1557 1330 1099 1052 977 482 313 797 671 1144 1190 1374 1345 1207 817 471 179 82 46 29 1 4 8 2 0 0
0 0 0 0 0 0 0 0 0 0 0 0 0 0 0 157 258 350 780 932 1096 1158 1144 1267 1131 704 807 720 64 0 4 428 840 1213 1252 1173 947 627 279 136 131 72 0 0 0 0 0 0 0
0 0 0 0 0 0 0 0 0 0 0 0 0 0 1 88 344 848 817 976 990 989 1023 1076 1153 1135 668 457 26 0 15 2 240 915 1107 949 750 451 218 283 168 0 0 0 0 0 0 0 0
0 0 0 0 0 0 0 0 0 0 0 0 0 0 0 233 617 880 772 850 933 902 898 944 859 971 1002 561 64 19 0 54 265 550 896 761 552 398 460 306 87 0 0 0 0 0 0 0 0
0 0 0 0 0 0 0 0 0 0 0 0 0 0 17 41 536 567 597 814 902 672 672 614 550 778 539 339 68 2 0 5 55 451 708 547 469 382 377 275 51 0 0 0 0 0 0 0 0
0 0 0 0 0 0 0 0 0 0 0 0 0 8 16 70 358 455 560 553 600 812 431 164 315 479 443 108 72 42 0 0 2 479 509 493 471 362 274 181 6 0 0 0 0 0 0 0 0
0 0 0 0 0 0 0 0 0 0 0 0 0 0 3 107 272 521 502 507 373 341 358 141 113 203 245 115 103 41 2 1 44 399 353 336 457 253 231 109 0 0 0 0 0 0 0 0 0
0 0 0 0 0 0 0 0 0 0 0 0 0 0 4 33 306 506 474 332 162 82 173 123 33 63 132 139 138 54 41 0 136 294 229 269 250 105 117 113 10 0 0 0 0 0 0 0 0
0 0 0 0 0 0 0 0 0 0 0 0 0 3 4 26 388 687 319 121 88 4 10 37 28 56 61 44 11 97 35 5 84 76 162 194 94 80 74 76 43 0 2 0 0 0 0 0 0
0 0 0 0 0 0 0 0 0 0 0 0 0 16 33 289 469 496 93 96 0 2 12 7 5 8 1 44 2 3 74 34 21 3 19 53 86 24 84 99 75 23 2 3 0 1 0 0 0
0 0 0 0 0 0 0 0 0 0 0 0 0 82 100 271 302 190 44 15 0 7 6 2 1 1 0 0 1 8 31 50 8 0 10 33 36 47 90 169 123 73 46 42 19 1 0 0 0
0 0 0 0 0 0 0 0 0 0 0 0 0 59 97 95 145 174 23 0 0 12 7 3 3 1 2 3 3 3 0 19 49 3 26 31 12 51 65 98 112 151 104 32 5 0 0 0 0
0 0 0 0 0 0 0 0 0 0 0 0 0 1 55 79 199 146 28 0 4 12 4 3 1 3 5 4 0 2 11 26 26 7 5 5 9 45 62 39 34 31 17 0 1 0 0 0 0
0 0 0 0 0 0 0 0 0 0 0 0 0 2 33 122 102 140 1 0 5 3 3 2 2 4 3 2 2 2 11 4 2 0 0 1 7 30 38 8 0 1 0 0 0 0 0 0 0
0 0 0 0 0 0 0 0 0 0 0 0 0 0 4 104 138 71 0 0 3 3 5 4 2 2 2 3 1 1 1 2 2 0 0 2 15 24 35 16 1 0 0 0 0 0 0 0 0
0 0 0 0 0 0 0 0 0 0 0 0 0 1 0 75 144 49 9 0 2 2 3 3 5 1 3 4 2 1 2 2 3 1 3 10 24 45 45 30 9 4 14 2 8 14 9 1 0
0 0 0 0 0 0 0 0 0 0 0 0 0 0 0 31 160 65 18 0 1 1 3 4 4 3 3 2 4 3 1 3 1 2 1 5 27 41 44 9 32 47 14 65 68 53 24 21 0
0 0 0 0 0 0 0 0 0 0 0 0 0 0 0 0 121 66 23 4 2 4 4 1 5 1 6 9 5 2 0 0 7 9 16 37 67 67 45 66 72 56 109 120 55 63 54 111 92
0 0 0 0 0 0 0 0 0 0 0 0 0 0 0 4 85 65 46 0 0 0 3 6 2 1 7 1 2 1 1 0 1 14 21 41 16 10 16 43 74 68 87 122 65 120 165 156 134
0 0 0 0 0 0 0 0 0 0 0 0 0 0 0 10 68 73 42 0 0 1 1 11 7 4 3 6 3 4 0 0 1 0 4 12 7 0 27 115 67 136 131 116 133 152 147 140 120
0 0 0 0 0 0 0 0 0 0 0 0 0 0 0 10 72 77 52 0 0 0 0 0 3 6 3 3 5 8 2 3 0 0 0 7 15 11 16 49 91 139 131 135 139 146 163 165 106
0 0 0 0 2 2 0 0 0 0 0 0 0 0 0 21 91 120 70 21 0 0 0 2 1 1 6 3 3 4 0 0 0 0 3 0 0 0 7 12 29 72 102 135 149 141 217 197 143
0 0 0 0 0 0 0 0 0 0 0 0 0 0 0 14 97 154 126 112 3 0 0 0 0 0 3 5 3 2 0 0 0 8 12 3 0 1 6 14 31 30 89 91 113 154 141 118 94
0 0 0 0 0 1 4 0 0 0 0 0 0 0 0 0 78 148 188 254 83 0 0 0 0 0 0 3 4 4 1 7 5 7 7 10 8 8 24 31 38 41 58 68 113 84 76 55 56
0 0 0 0 2 11 3 0 0 0 0 0 0 0 0 0 103 165 232 281 275 49 0 0 0 0 0 0 0 4 0 1 9 6 12 21 22 11 12 24 19 18 25 42 42 40 41 43 57
0 0 0 0 0 15 14 2 0 0 0 0 0 0 0 52 210 192 212 368 318 267 40 0 0 0 0 0 0 0 4 5 3 8 11 16 16 18 17 14 15 12 18 25 11 6 11 23 35